FW4143 Weather Reports


time (UTC)temp
C
wind
direction
speed
KPH
gust
KPH
rain 1hr
cm
rain 24hr
cm
rain mn
cm
humidity
%
barometer
mb
20260906212604 32 46 8.0 16.1 0.00 0.00 0.00 35 1012.3
20260906212525 32 47 9.7 16.1 0.00 0.00 0.00 36 1012.3
20260906212404 32 45 9.7 17.7 0.00 0.00 0.00 36 1012.4
20260906212306 32 46 9.7 19.3 0.00 0.00 0.00 36 1012.4
20260906212204 32 47 9.7 19.3 0.00 0.00 0.00 36 1012.4
20260906212104 32 47 9.7 19.3 0.00 0.00 0.00 37 1012.4
20260906212004 32 47 9.7 19.3 0.00 0.00 0.00 37 1012.3
20260906211925 32 47 9.7 19.3 0.00 0.00 0.00 37 1012.4
20260906211804 32 46 9.7 19.3 0.00 0.00 0.00 38 1012.4
20260906211704 32 44 9.7 19.3 0.00 0.00 0.00 38 1012.4
20260906211604 32 42 9.7 19.3 0.00 0.00 0.00 38 1012.4
20260906211525 32 42 9.7 19.3 0.00 0.00 0.00 38 1012.4
20260906211404 32 39 9.7 24.1 0.00 0.00 0.00 38 1012.4
20260906211304 32 39 9.7 24.1 0.00 0.00 0.00 38 1012.4
20260906211225 32 39 9.7 24.1 0.00 0.00 0.00 38 1012.4
20260906211104 32 39 9.7 24.1 0.00 0.00 0.00 38 1012.5
20260906211004 33 39 9.7 24.1 0.00 0.00 0.00 38 1012.5
20260906210904 33 38 9.7 24.1 0.00 0.00 0.00 39 1012.5
20260906210804 33 39 9.7 24.1 0.00 0.00 0.00 39 1012.5
20260906210725 33 40 9.7 24.1 0.00 0.00 0.00 39 1012.5
20260906210604 33 42 9.7 24.1 0.00 0.00 0.00 39 1012.6
20260906210504 33 43 8.0 24.1 0.00 0.00 0.00 39 1012.6
20260906210404 33 44 9.7 20.9 0.00 0.00 0.00 39 1012.6
20260906210304 33 45 9.7 20.9 0.00 0.00 0.00 39 1012.6
20260906210204 33 44 9.7 20.9 0.00 0.00 0.00 39 1012.5
20260906210104 33 46 9.7 17.7 0.00 0.00 0.00 39 1012.5
20260906210004 33 48 9.7 17.7 0.00 0.00 0.00 39 1012.5
20260906205925 33 49 9.7 17.7 0.00 0.00 0.00 39 1012.5
20260906205825 33 48 9.7 17.7 0.00 0.00 0.00 39 1012.6
20260906205704 33 48 9.7 17.7 0.00 0.00 0.00 39 1012.6
20260906205625 33 48 11.3 19.3 0.00 0.00 0.00 39 1012.6
20260906205504 33 47 11.3 19.3 0.00 0.00 0.00 39 1012.6
20260906205404 33 48 11.3 19.3 0.00 0.00 0.00 39 1012.6
20260906205306 33 47 11.3 20.9 0.00 0.00 0.00 39 1012.6
20260906205204 33 46 11.3 22.5 0.00 0.00 0.00 39 1012.6
20260906205104 33 46 11.3 22.5 0.00 0.00 0.00 39 1012.6
20260906205004 33 45 12.9 22.5 0.00 0.00 0.00 40 1012.6
20260906204904 33 43 12.9 22.5 0.00 0.00 0.00 40 1012.6
20260906204804 33 43 12.9 22.5 0.00 0.00 0.00 40 1012.7
20260906204725 33 43 12.9 22.5 0.00 0.00 0.00 40 1012.6
20260906204604 33 43 11.3 22.5 0.00 0.00 0.00 40 1012.7
20260906204504 33 43 11.3 22.5 0.00 0.00 0.00 40 1012.7
20260906204404 33 42 11.3 22.5 0.00 0.00 0.00 40 1012.8
20260906204304 34 42 9.7 22.5 0.00 0.00 0.00 39 1012.7
20260906204204 34 41 8.0 20.9 0.00 0.00 0.00 39 1012.6
20260906204104 34 41 8.0 20.9 0.00 0.00 0.00 39 1012.6
20260906204004 35 39 6.4 19.3 0.00 0.00 0.00 39 1012.7
20260906203904 35 37 4.8 19.3 0.00 0.00 0.00 38 1012.7
20260906203804 35 36 4.8 16.1 0.00 0.00 0.00 38 1012.8
20260906203704 35 28 4.8 16.1 0.00 0.00 0.00 38 1012.8
20260906203625 35 22 4.8 16.1 0.00 0.00 0.00 38 1012.7
20260906203504 35 13 4.8 11.3 0.00 0.00 0.00 38 1012.8
20260906203425 35 8 4.8 11.3 0.00 0.00 0.00 38 1012.7
20260906203304 35 10 4.8 11.3 0.00 0.00 0.00 38 1012.8
20260906203225 35 9 4.8 11.3 0.00 0.00 0.00 37 1012.8
20260906203104 35 359 3.2 9.7 0.00 0.00 0.00 37 1012.7
20260906203025 35 3 3.2 9.7 0.00 0.00 0.00 37 1012.8
20260906202904 35 13 3.2 9.7 0.00 0.00 0.00 37 1012.8
20260906202804 35 17 3.2 9.7 0.00 0.00 0.00 37 1012.8
20260906202704 35 30 3.2 8.0 0.00 0.00 0.00 37 1012.8
20260906202604 35 38 3.2 8.0 0.00 0.00 0.00 37 1012.8
20260906202504 35 43 3.2 8.0 0.00 0.00 0.00 36 1012.8
20260906202404 35 52 3.2 8.0 0.00 0.00 0.00 36 1012.8
20260906202306 35 52 3.2 9.7 0.00 0.00 0.00 36 1012.8
20260906202204 35 50 3.2 9.7 0.00 0.00 0.00 36 1012.9
20260906202104 35 45 3.2 9.7 0.00 0.00 0.00 36 1012.8
20260906202004 35 23 3.2 9.7 0.00 0.00 0.00 36 1012.8
20260906201904 35 1 4.8 9.7 0.00 0.00 0.00 36 1012.9
20260906201804 35 336 4.8 9.7 0.00 0.00 0.00 36 1012.8
20260906201704 35 321 4.8 9.7 0.00 0.00 0.00 36 1012.9
20260906201604 35 313 4.8 9.7 0.00 0.00 0.00 36 1012.9
20260906201504 35 294 4.8 14.5 0.00 0.00 0.00 36 1012.9
20260906201425 35 293 4.8 16.1 0.00 0.00 0.00 36 1012.9
20260906201304 35 278 4.8 16.1 0.00 0.00 0.00 37 1012.9
20260906201204 35 275 4.8 16.1 0.00 0.00 0.00 37 1012.9
20260906201104 35 273 4.8 16.1 0.00 0.00 0.00 36 1012.9
20260906201004 35 268 4.8 16.1 0.00 0.00 0.00 36 1012.9
20260906200904 35 268 4.8 16.1 0.00 0.00 0.00 37 1012.9
20260906200825 35 266 4.8 16.1 0.00 0.00 0.00 37 1013.0
20260906200704 35 261 4.8 16.1 0.00 0.00 0.00 37 1013.0
20260906200604 35 255 4.8 16.1 0.00 0.00 0.00 36 1013.0
20260906200504 35 242 3.2 16.1 0.00 0.00 0.00 36 1013.0
20260906200425 35 224 3.2 12.9 0.00 0.00 0.00 36 1013.0
20260906200304 35 215 3.2 11.3 0.00 0.00 0.00 36 1013.0
20260906200204 35 206 3.2 11.3 0.00 0.00 0.00 36 1013.0
20260906200104 35 197 3.2 11.3 0.00 0.00 0.00 35 1013.0
20260906200025 35 176 3.2 11.3 0.00 0.00 0.00 35 1013.0
20260906195904 36 136 3.2 8.0 0.00 0.00 0.00 36 1013.0
20260906195804 35 119 3.2 4.8 0.00 0.00 0.00 36 1013.0
20260906195704 35 113 3.2 4.8 0.00 0.00 0.00 35 1013.0
20260906195604 35 110 3.2 4.8 0.00 0.00 0.00 36 1013.0
20260906195504 35 105 3.2 4.8 0.00 0.00 0.00 36 1013.1
20260906195404 35 96 3.2 6.4 0.00 0.00 0.00 36 1013.1
20260906195306 35 89 3.2 6.4 0.00 0.00 0.00 36 1013.1
20260906195204 35 84 3.2 6.4 0.00 0.00 0.00 36 1013.1
20260906195104 35 79 3.2 6.4 0.00 0.00 0.00 36 1013.1
20260906195004 35 81 3.2 9.7 0.00 0.00 0.00 35 1013.2
20260906194925 35 83 3.2 9.7 0.00 0.00 0.00 35 1013.2
20260906194804 35 83 3.2 9.7 0.00 0.00 0.00 36 1013.2
20260906194704 35 83 3.2 9.7 0.00 0.00 0.00 36 1013.2
20260906194604 35 83 3.2 9.7 0.00 0.00 0.00 36 1013.2
20260906194504 35 83 3.2 9.7 0.00 0.00 0.00 36 1013.2
20260906194404 35 84 3.2 9.7 0.00 0.00 0.00 35 1013.3
20260906194325 35 85 3.2 9.7 0.00 0.00 0.00 35 1013.3
20260906194225 35 88 3.2 9.7 0.00 0.00 0.00 35 1013.3
20260906194104 35 97 3.2 9.7 0.00 0.00 0.00 35 1013.3
20260906194004 35 103 3.2 6.4 0.00 0.00 0.00 35 1013.2
20260906193904 35 108 3.2 6.4 0.00 0.00 0.00 35 1013.3
20260906193804 35 117 1.6 6.4 0.00 0.00 0.00 35 1013.2
20260906193704 35 123 3.2 6.4 0.00 0.00 0.00 35 1013.3
20260906193604 35 131 1.6 6.4 0.00 0.00 0.00 35 1013.3
20260906193504 34 139 3.2 6.4 0.00 0.00 0.00 36 1013.3
20260906193404 34 148 3.2 8.0 0.00 0.00 0.00 35 1013.3
20260906193304 34 162 3.2 9.7 0.00 0.00 0.00 36 1013.3
20260906193204 34 164 3.2 9.7 0.00 0.00 0.00 36 1013.4
20260906193104 34 164 3.2 9.7 0.00 0.00 0.00 35 1013.3
20260906193025 34 163 3.2 9.7 0.00 0.00 0.00 35 1013.4
20260906192904 34 163 3.2 9.7 0.00 0.00 0.00 35 1013.4
20260906192804 34 164 4.8 9.7 0.00 0.00 0.00 35 1013.4
20260906192704 34 167 4.8 9.7 0.00 0.00 0.00 35 1013.4
20260906192604 34 167 4.8 9.7 0.00 0.00 0.00 35 1013.4
20260906192504 34 168 4.8 9.7 0.00 0.00 0.00 35 1013.4
20260906192404 34 173 4.8 9.7 0.00 0.00 0.00 35 1013.4
20260906192306 35 167 3.2 9.7 0.00 0.00 0.00 35 1013.4
20260906192204 35 166 3.2 9.7 0.00 0.00 0.00 35 1013.5
20260906192104 35 164 3.2 9.7 0.00 0.00 0.00 34 1013.4
20260906192004 35 167 3.2 11.3 0.00 0.00 0.00 34 1013.5
20260906191904 35 166 3.2 11.3 0.00 0.00 0.00 35 1013.5
20260906191804 35 165 3.2 11.3 0.00 0.00 0.00 34 1013.5
20260906191704 35 161 3.2 11.3 0.00 0.00 0.00 34 1013.5
20260906191604 35 159 3.2 11.3 0.00 0.00 0.00 33 1013.5
20260906191504 35 157 3.2 11.3 0.00 0.00 0.00 33 1013.5
20260906191404 35 160 3.2 11.3 0.00 0.00 0.00 33 1013.5
20260906191304 35 172 3.2 11.3 0.00 0.00 0.00 33 1013.6
20260906191204 35 174 3.2 11.3 0.00 0.00 0.00 33 1013.5
20260906191104 35 182 3.2 11.3 0.00 0.00 0.00 33 1013.6
20260906191025 35 189 3.2 11.3 0.00 0.00 0.00 33 1013.6
20260906190904 35 200 1.6 6.4 0.00 0.00 0.00 33 1013.6
20260906190804 35 204 3.2 6.4 0.00 0.00 0.00 33 1013.6
20260906190704 35 206 3.2 8.0 0.00 0.00 0.00 32 1013.6
20260906190604 35 205 3.2 8.0 0.00 0.00 0.00 32 1013.6
20260906190504 34 208 3.2 8.0 0.00 0.00 0.00 32 1013.6
20260906190404 34 202 3.2 8.0 0.00 0.00 0.00 32 1013.7
20260906190304 34 197 3.2 8.0 0.00 0.00 0.00 32 1013.7
20260906190225 34 194 3.2 8.0 0.00 0.00 0.00 32 1013.7
20260906190125 34 190 3.2 8.0 0.00 0.00 0.00 32 1013.8
20260906190004 33 181 3.2 8.0 0.00 0.00 0.00 32 1013.8
20260906185904 33 178 3.2 8.0 0.00 0.00 0.00 32 1013.7
20260906185804 33 176 3.2 8.0 0.00 0.00 0.00 32 1013.8
20260906185704 33 170 3.2 8.0 0.00 0.00 0.00 32 1013.8
20260906185604 33 168 3.2 8.0 0.00 0.00 0.00 32 1013.8
20260906185504 33 165 3.2 8.0 0.00 0.00 0.00 32 1013.8
20260906185425 33 163 3.2 8.0 0.00 0.00 0.00 32 1013.8
20260906185306 33 156 3.2 6.4 0.00 0.00 0.00 32 1013.8
20260906185204 33 153 3.2 6.4 0.00 0.00 0.00 32 1013.8
20260906185104 33 150 3.2 6.4 0.00 0.00 0.00 32 1013.8
20260906185004 33 148 3.2 6.4 0.00 0.00 0.00 32 1013.8
20260906184904 32 146 3.2 6.4 0.00 0.00 0.00 32 1013.8
20260906184804 32 144 3.2 6.4 0.00 0.00 0.00 32 1013.8
20260906184704 33 144 3.2 6.4 0.00 0.00 0.00 31 1013.8
20260906184604 32 146 3.2 6.4 0.00 0.00 0.00 31 1013.8
20260906184504 32 149 3.2 6.4 0.00 0.00 0.00 31 1013.9
20260906184404 32 153 3.2 8.0 0.00 0.00 0.00 31 1013.9
20260906184304 32 155 3.2 8.0 0.00 0.00 0.00 31 1013.9
20260906184204 33 158 3.2 8.0 0.00 0.00 0.00 31 1013.9
20260906184104 33 162 1.6 8.0 0.00 0.00 0.00 31 1013.9
20260906184004 33 166 1.6 8.0 0.00 0.00 0.00 30 1013.9
20260906183904 32 169 1.6 8.0 0.00 0.00 0.00 30 1013.9
20260906183804 32 171 1.6 8.0 0.00 0.00 0.00 30 1013.9
20260906183725 32 173 3.2 8.0 0.00 0.00 0.00 29 1013.9
20260906183604 32 169 3.2 8.0 0.00 0.00 0.00 29 1014.0
20260906183504 32 159 3.2 8.0 0.00 0.00 0.00 29 1013.9
20260906183404 32 154 3.2 8.0 0.00 0.00 0.00 29 1013.9
20260906183304 32 154 1.6 8.0 0.00 0.00 0.00 28 1014.0
20260906183204 32 153 1.6 8.0 0.00 0.00 0.00 28 1014.0
20260906183104 32 152 3.2 8.0 0.00 0.00 0.00 28 1014.0
20260906183004 32 151 3.2 8.0 0.00 0.00 0.00 28 1014.0
20260906182904 32 147 3.2 8.0 0.00 0.00 0.00 28 1014.0
20260906182804 32 140 1.6 8.0 0.00 0.00 0.00 27 1014.1
20260906182704 32 131 1.6 8.0 0.00 0.00 0.00 26 1014.1
20260906182604 32 122 1.6 6.4 0.00 0.00 0.00 26 1014.1
20260906182504 32 116 1.6 4.8 0.00 0.00 0.00 26 1014.1
20260906182404 31 118 1.6 4.8 0.00 0.00 0.00 26 1014.1
20260906182306 31 120 1.6 4.8 0.00 0.00 0.00 25 1014.1
20260906182204 31 121 1.6 4.8 0.00 0.00 0.00 26 1014.1
20260906182125 31 122 1.6 4.8 0.00 0.00 0.00 26 1014.1
20260906182004 31 127 1.6 6.4 0.00 0.00 0.00 25 1014.1
20260906181904 31 131 1.6 6.4 0.00 0.00 0.00 24 1014.2
20260906181825 31 133 1.6 6.4 0.00 0.00 0.00 24 1014.2
20260906181705 31 138 1.6 6.4 0.00 0.00 0.00 23 1014.2
20260906181604 31 142 1.6 6.4 0.00 0.00 0.00 22 1014.2
20260906181504 31 147 1.6 8.0 0.00 0.00 0.00 22 1014.2
20260906181404 31 149 1.6 8.0 0.00 0.00 0.00 22 1014.2
20260906181304 31 151 1.6 8.0 0.00 0.00 0.00 19 1014.3
20260906181204 31 152 1.6 8.0 0.00 0.00 0.00 19 1014.3
20260906181104 31 153 1.6 8.0 0.00 0.00 0.00 16 1014.3
20260906181004 31 154 1.6 8.0 0.00 0.00 0.00 13 1014.3
20260906180904 31 155 3.2 8.0 0.00 0.00 0.00 13 1014.3
20260906180804 30 158 3.2 8.0 0.00 0.00 0.00 13 1014.4
20260906180725 30 159 3.2 8.0 0.00 0.00 0.00 13 1014.3
20260906180625 30 162 3.2 8.0 0.00 0.00 0.00 10 1014.4
20260906180504 30 166 3.2 9.7 0.00 0.00 0.00 10 1014.4
20260906180404 30 169 3.2 9.7 0.00 0.00 0.00 9 1014.4
20260906180304 30 172 4.8 9.7 0.00 0.00 0.00 10 1014.4
20260906180204 30 175 4.8 9.7 0.00 0.00 0.00 8 1014.4
20260906180104 30 173 4.8 9.7 0.00 0.00 0.00 10 1014.4
20260906180004 31 178 4.8 9.7 0.00 0.00 0.00 10 1014.4
20260906175904 31 180 4.8 9.7 0.00 0.00 0.00 10 1014.5
20260906175804 31 182 4.8 9.7 0.00 0.00 0.00 10 1014.5
20260906175725 31 186 4.8 9.7 0.00 0.00 0.00 10 1014.5
20260906175604 31 196 4.8 9.7 0.00 0.00 0.00 13 1014.5
20260906175504 31 206 4.8 11.3 0.00 0.00 0.00 14 1014.6
20260906175425 31 211 4.8 11.3 0.00 0.00 0.00 15 1014.6
20260906175306 31 224 6.4 16.1 0.00 0.00 0.00 16 1014.6
20260906175225 31 228 4.8 16.1 0.00 0.00 0.00 16 1014.6
20260906175104 31 231 4.8 16.1 0.00 0.00 0.00 16 1014.6
20260906175004 31 232 4.8 16.1 0.00 0.00 0.00 16 1014.7
20260906174904 31 234 4.8 16.1 0.00 0.00 0.00 17 1014.7
20260906174804 31 237 4.8 16.1 0.00 0.00 0.00 17 1014.8
20260906174704 31 234 4.8 16.1 0.00 0.00 0.00 18 1014.7
20260906174604 31 224 3.2 16.1 0.00 0.00 0.00 17 1014.8
20260906174504 31 211 3.2 16.1 0.00 0.00 0.00 15 1014.8
20260906174404 31 191 3.2 16.1 0.00 0.00 0.00 13 1014.8
20260906174304 31 168 3.2 8.0 0.00 0.00 0.00 5 1014.8
20260906174204 31 162 3.2 6.4 0.00 0.00 0.00 5 1014.8
20260906174125 31 164 3.2 6.4 0.00 0.00 0.00 5 1014.9
20260906174025 31 169 3.2 6.4 0.00 0.00 0.00 1 1014.9
20260906173904 31 175 3.2 6.4 0.00 0.00 0.00 1 1014.9
20260906173804 31 181 3.2 6.4 0.00 0.00 0.00 1 1014.9
20260906173704 31 180 3.2 8.0 0.00 0.00 0.00 1 1014.9
20260906173604 31 178 3.2 8.0 0.00 0.00 0.00 1 1014.9
20260906173504 31 180 3.2 8.0 0.00 0.00 0.00 1 1014.9
20260906173425 31 181 3.2 8.0 0.00 0.00 0.00 1 1014.9
20260906173304 31 177 1.6 8.0 0.00 0.00 0.00 1 1014.9
20260906173204 31 152 1.6 8.0 0.00 0.00 0.00 1 1014.9
20260906173104 31 135 1.6 8.0 0.00 0.00 0.00 1 1014.9
20260906173004 31 115 1.6 8.0 0.00 0.00 0.00 3 1015.0
20260906172904 31 91 1.6 8.0 0.00 0.00 0.00 5 1015.0
20260906172804 31 74 1.6 8.0 0.00 0.00 0.00 5 1015.0
20260906172704 31 67 1.6 4.8 0.00 0.00 0.00 7 1015.0
20260906172604 31 66 1.6 4.8 0.00 0.00 0.00 8 1015.0
20260906172504 31 66 1.6 4.8 0.00 0.00 0.00 9 1015.1
20260906172404 31 66 1.6 4.8 0.00 0.00 0.00 9 1015.1
20260906172306 31 65 1.6 4.8 0.00 0.00 0.00 8 1015.1
20260906172204 31 65 1.6 4.8 0.00 0.00 0.00 8 1015.1
20260906172104 31 65 1.6 4.8 0.00 0.00 0.00 8 1015.2
20260906172004 31 65 3.2 4.8 0.00 0.00 0.00 8 1015.1
20260906171904 31 64 3.2 6.4 0.00 0.00 0.00 4 1015.2
20260906171804 31 64 3.2 6.4 0.00 0.00 0.00 3 1015.1
20260906171704 31 63 3.2 6.4 0.00 0.00 0.00 1 1015.2
20260906171604 31 62 3.2 6.4 0.00 0.00 0.00 1 1015.2
20260906171504 31 61 3.2 6.4 0.00 0.00 0.00 1 1015.2
20260906171404 31 61 3.2 6.4 0.00 0.00 0.00 1 1015.2
20260906171304 31 61 3.2 6.4 0.00 0.00 0.00 1 1015.2
20260906171204 31 60 3.2 6.4 0.00 0.00 0.00 1 1015.3
20260906171104 31 59 3.2 6.4 0.00 0.00 0.00 6 1015.3
20260906171025 31 59 3.2 6.4 0.00 0.00 0.00 6 1015.3
20260906170904 31 58 3.2 6.4 0.00 0.00 0.00 2 1015.3
20260906170804 31 58 3.2 11.3 0.00 0.00 0.00 5 1015.4
20260906170704 31 59 3.2 11.3 0.00 0.00 0.00 6 1015.4
20260906170604 31 61 3.2 11.3 0.00 0.00 0.00 1 1015.4
20260906170504 31 61 4.8 11.3 0.00 0.00 0.00 1 1015.4
20260906170404 31 63 4.8 11.3 0.00 0.00 0.00 1 1015.4
20260906170304 31 63 4.8 11.3 0.00 0.00 0.00 1 1015.4
20260906170204 31 65 4.8 11.3 0.00 0.00 0.00 1 1015.4
20260906170106 31 67 4.8 11.3 0.00 0.00 0.00 1 1015.5
20260906170004 31 68 4.8 11.3 0.00 0.00 0.00 1 1015.5
20260906165925 31 68 4.8 11.3 0.00 0.00 0.00 1 1015.5
20260906165804 31 70 4.8 11.3 0.00 0.00 0.00 1 1015.5
20260906165704 31 70 4.8 11.3 0.00 0.00 0.00 1 1015.5
20260906165604 31 68 4.8 11.3 0.00 0.00 0.00 1 1015.5
20260906165504 31 69 4.8 11.3 0.00 0.00 0.00 1 1015.5
20260906165425 31 69 4.8 11.3 0.00 0.00 0.00 1 1015.4
20260906165306 30 70 4.8 11.3 0.00 0.00 0.00 1 1015.5
20260906165204 30 69 4.8 11.3 0.00 0.00 0.00 1 1015.5
20260906165104 30 70 4.8 11.3 0.00 0.00 0.00 1 1015.5
20260906165004 30 70 4.8 11.3 0.00 0.00 0.00 1 1015.5
20260906164904 30 70 4.8 11.3 0.00 0.00 0.00 1 1015.6
20260906164804 30 69 6.4 11.3 0.00 0.00 0.00 1 1015.6
20260906164704 30 69 4.8 11.3 0.00 0.00 0.00 1 1015.6
20260906164604 30 70 4.8 11.3 0.00 0.00 0.00 1 1015.6
20260906164504 30 69 4.8 9.7 0.00 0.00 0.00 1 1015.6
20260906164404 30 68 4.8 9.7 0.00 0.00 0.00 1 1015.6
20260906164304 30 66 4.8 9.7 0.00 0.00 0.00 1 1015.6
20260906164204 30 63 4.8 9.7 0.00 0.00 0.00 1 1015.6
20260906164104 30 59 4.8 9.7 0.00 0.00 0.00 1 1015.6
20260906164004 30 55 4.8 9.7 0.00 0.00 0.00 1 1015.6
20260906163925 30 53 4.8 9.7 0.00 0.00 0.00 1 1015.5
20260906163804 30 50 4.8 9.7 0.00 0.00 0.00 1 1015.6
20260906163725 30 49 4.8 9.7 0.00 0.00 0.00 3 1015.7
20260906163604 30 48 4.8 9.7 0.00 0.00 0.00 6 1015.7
20260906163525 30 47 4.8 9.7 0.00 0.00 0.00 6 1015.7
20260906163404 30 45 4.8 9.7 0.00 0.00 0.00 8 1015.7
20260906163325 30 43 4.8 9.7 0.00 0.00 0.00 7 1015.7
20260906163204 30 39 4.8 9.7 0.00 0.00 0.00 3 1015.7
20260906163104 30 37 4.8 9.7 0.00 0.00 0.00 1 1015.7
20260906163004 30 37 4.8 12.9 0.00 0.00 0.00 1 1015.7
20260906162904 30 38 4.8 12.9 0.00 0.00 0.00 1 1015.6
20260906162825 30 38 4.8 12.9 0.00 0.00 0.00 1 1015.6
20260906162704 30 39 4.8 12.9 0.00 0.00 0.00 1 1015.6
20260906162625 30 39 4.8 12.9 0.00 0.00 0.00 1 1015.6
20260906162504 30 40 6.4 12.9 0.00 0.00 0.00 1 1015.6
20260906162404 30 42 4.8 12.9 0.00 0.00 0.00 1 1015.6
20260906162306 30 44 4.8 12.9 0.00 0.00 0.00 1 1015.6
20260906162204 30 46 4.8 12.9 0.00 0.00 0.00 1 1015.6
20260906162125 30 47 4.8 12.9 0.00 0.00 0.00 1 1015.6
20260906162004 30 49 4.8 11.3 0.00 0.00 0.00 1 1015.6
20260906161904 30 51 4.8 9.7 0.00 0.00 0.00 1 1015.6
20260906161804 30 52 4.8 9.7 0.00 0.00 0.00 1 1015.6
20260906161704 30 54 4.8 9.7 0.00 0.00 0.00 1 1015.5
20260906161604 30 56 4.8 9.7 0.00 0.00 0.00 1 1015.5
20260906161525 30 57 4.8 9.7 0.00 0.00 0.00 1 1015.6
20260906161404 30 58 4.8 9.7 0.00 0.00 0.00 1 1015.5
20260906161304 30 58 4.8 9.7 0.00 0.00 0.00 1 1015.4
20260906161204 30 58 4.8 9.7 0.00 0.00 0.00 1 1015.5
20260906161104 30 59 4.8 9.7 0.00 0.00 0.00 1 1015.4
20260906161004 30 60 4.8 9.7 0.00 0.00 0.00 1 1015.5
20260906160904 30 59 4.8 8.0 0.00 0.00 0.00 1 1015.5
20260906160804 30 58 4.8 8.0 0.00 0.00 0.00 1 1015.4
20260906160704 29 57 3.2 8.0 0.00 0.00 0.00 1 1015.5
20260906160625 29 56 3.2 6.4 0.00 0.00 0.00 1 1015.4
20260906160504 29 54 3.2 6.4 0.00 0.00 0.00 1 1015.5
20260906160404 29 53 3.2 6.4 0.00 0.00 0.00 1 1015.5
20260906160304 29 52 3.2 6.4 0.00 0.00 0.00 1 1015.4
20260906160204 29 51 3.2 8.0 0.00 0.00 0.00 1 1015.4
20260906160104 29 50 4.8 9.7 0.00 0.00 0.00 1 1015.4
20260906160004 29 50 4.8 9.7 0.00 0.00 0.00 1 1015.5
20260906155925 29 49 4.8 9.7 0.00 0.00 0.00 1 1015.4
20260906155825 29 49 4.8 9.7 0.00 0.00 0.00 1 1015.4
20260906155704 29 48 4.8 9.7 0.00 0.00 0.00 1 1015.4
20260906155604 29 47 4.8 9.7 0.00 0.00 0.00 1 1015.4
20260906155504 29 47 4.8 9.7 0.00 0.00 0.00 1 1015.3
20260906155404 29 46 4.8 9.7 0.00 0.00 0.00 1 1015.4
20260906155306 29 45 4.8 9.7 0.00 0.00 0.00 1 1015.4
20260906155204 29 44 4.8 9.7 0.00 0.00 0.00 1 1015.4
20260906155104 29 42 4.8 9.7 0.00 0.00 0.00 1 1015.3
20260906155004 29 41 4.8 9.7 0.00 0.00 0.00 1 1015.3
20260906154904 29 40 4.8 9.7 0.00 0.00 0.00 1 1015.2
20260906154804 29 39 4.8 9.7 0.00 0.00 0.00 1 1015.2
20260906154704 29 39 3.2 9.7 0.00 0.00 0.00 1 1015.3
20260906154604 29 38 3.2 9.7 0.00 0.00 0.00 1 1015.2
20260906154504 29 38 3.2 9.7 0.00 0.00 0.00 1 1015.2
20260906154404 29 37 3.2 9.7 0.00 0.00 0.00 1 1015.2
20260906154304 29 36 3.2 9.7 0.00 0.00 0.00 1 1015.2
20260906154225 29 36 1.6 9.7 0.00 0.00 0.00 1 1015.2
20260906154104 29 37 1.6 6.4 0.00 0.00 0.00 1 1015.2
20260906154025 29 37 1.6 4.8 0.00 0.00 0.00 1 1015.2
20260906153904 29 37 1.6 4.8 0.00 0.00 0.00 1 1015.2
20260906153804 29 37 1.6 4.8 0.00 0.00 0.00 1 1015.2
20260906153704 29 37 1.6 6.4 0.00 0.00 0.00 1 1015.2
20260906153604 29 37 1.6 6.4 0.00 0.00 0.00 1 1015.2
20260906153504 29 36 1.6 6.4 0.00 0.00 0.00 1 1015.2
20260906153404 29 36 3.2 6.4 0.00 0.00 0.00 1 1015.1
20260906153304 29 36 3.2 6.4 0.00 0.00 0.00 1 1015.2
20260906153204 29 36 3.2 6.4 0.00 0.00 0.00 1 1015.2
20260906153104 29 36 3.2 8.0 0.00 0.00 0.00 1 1015.2
20260906153004 28 36 3.2 8.0 0.00 0.00 0.00 1 1015.2
20260906152904 28 34 3.2 8.0 0.00 0.00 0.00 1 1015.1
20260906152804 28 31 4.8 9.7 0.00 0.00 0.00 1 1015.1
20260906152725 28 29 3.2 9.7 0.00 0.00 0.00 1 1015.1
20260906152603 28 25 3.2 9.7 0.00 0.00 0.00 1 1015.1
20260906152504 28 18 3.2 9.7 0.00 0.00 0.00 1 1015.1
20260906152404 28 8 3.2 9.7 0.00 0.00 0.00 1 1015.1
20260906152306 28 359 3.2 9.7 0.00 0.00 0.00 1 1015.1
20260906152204 28 346 3.2 9.7 0.00 0.00 0.00 1 1015.1
20260906152104 28 321 3.2 9.7 0.00 0.00 0.00 1 1015.1
20260906152004 29 304 3.2 9.7 0.00 0.00 0.00 1 1015.1
20260906151904 28 285 3.2 9.7 0.00 0.00 0.00 1 1015.0
20260906151825 28 277 3.2 9.7 0.00 0.00 0.00 1 1015.0
20260906151704 28 274 3.2 6.4 0.00 0.00 0.00 1 1015.1
20260906151604 28 274 3.2 6.4 0.00 0.00 0.00 1 1015.0
20260906151504 28 274 3.2 6.4 0.00 0.00 0.00 1 1015.0
20260906151404 28 274 3.2 6.4 0.00 0.00 0.00 1 1015.0
20260906151304 28 273 3.2 6.4 0.00 0.00 0.00 1 1015.0
20260906151204 28 274 3.2 8.0 0.00 0.00 0.00 1 1015.0
20260906151104 28 277 3.2 8.0 0.00 0.00 0.00 1 1015.0
20260906151004 28 282 3.2 8.0 0.00 0.00 0.00 1 1015.0
20260906150904 28 287 3.2 8.0 0.00 0.00 0.00 1 1014.9
20260906150825 28 290 3.2 8.0 0.00 0.00 0.00 1 1014.9
20260906150704 28 304 3.2 8.0 0.00 0.00 0.00 1 1014.9
20260906150604 28 308 3.2 8.0 0.00 0.00 0.00 1 1014.9
20260906150525 28 313 3.2 8.0 0.00 0.00 0.00 1 1014.9
20260906150404 28 322 3.2 8.0 0.00 0.00 0.00 1 1014.9
20260906150325 28 326 3.2 8.0 0.00 0.00 0.00 1 1014.9
20260906150204 28 334 3.2 8.0 0.00 0.00 0.00 1 1014.9
20260906150125 28 336 3.2 8.0 0.00 0.00 0.00 1 1014.9
20260906150025 28 340 3.2 8.0 0.00 0.00 0.00 1 1014.9
20260906145904 28 341 3.2 8.0 0.00 0.00 0.00 1 1014.9
20260906145825 28 342 3.2 8.0 0.00 0.00 0.00 1 1014.9
20260906145704 28 343 3.2 8.0 0.00 0.00 0.00 1 1014.9
20260906145604 28 343 3.2 8.0 0.00 0.00 0.00 1 1014.9
20260906145525 28 343 3.2 8.0 0.00 0.00 0.00 1 1014.9
20260906145403 28 343 3.2 8.0 0.00 0.00 0.00 1 1014.9
20260906145306 28 343 3.2 8.0 0.00 0.00 0.00 1 1014.9
20260906145203 28 344 1.6 6.4 0.00 0.00 0.00 1 1014.9
20260906145104 28 344 1.6 4.8 0.00 0.00 0.00 1 1014.8
20260906145004 28 344 1.6 4.8 0.00 0.00 0.00 1 1014.9
20260906144904 28 343 1.6 4.8 0.00 0.00 0.00 1 1014.8
20260906144804 28 343 1.6 6.4 0.00 0.00 0.00 1 1014.8
20260906144703 28 343 1.6 6.4 0.00 0.00 0.00 1 1014.8
20260906144604 28 343 1.6 6.4 0.00 0.00 0.00 1 1014.8
20260906144504 28 343 1.6 6.4 0.00 0.00 0.00 1 1014.8
20260906144404 28 343 3.2 6.4 0.00 0.00 0.00 1 1014.8
20260906144304 28 343 3.2 6.4 0.00 0.00 0.00 1 1014.8
20260906144204 28 344 3.2 6.4 0.00 0.00 0.00 1 1014.9
20260906144104 28 344 1.6 6.4 0.00 0.00 0.00 1 1014.9
20260906144025 28 344 3.2 6.4 0.00 0.00 0.00 1 1014.9
20260906143904 28 344 3.2 6.4 0.00 0.00 0.00 1 1014.9
20260906143804 28 343 3.2 6.4 0.00 0.00 0.00 1 1014.9
20260906143725 28 343 3.2 6.4 0.00 0.00 0.00 1 1014.9
20260906143604 28 343 3.2 6.4 0.00 0.00 0.00 1 1014.9
20260906143503 28 342 3.2 6.4 0.00 0.00 0.00 1 1014.9
20260906143404 28 342 3.2 6.4 0.00 0.00 0.00 1 1014.9
20260906143304 28 341 3.2 6.4 0.00 0.00 0.00 1 1014.9
20260906143204 28 341 3.2 6.4 0.00 0.00 0.00 1 1014.9
20260906143125 28 340 3.2 6.4 0.00 0.00 0.00 1 1014.9
20260906143004 28 340 3.2 6.4 0.00 0.00 0.00 1 1014.9
20260906142903 28 339 3.2 6.4 0.00 0.00 0.00 1 1014.9
20260906142825 28 339 1.6 6.4 0.00 0.00 0.00 1 1014.9
20260906142703 28 339 1.6 6.4 0.00 0.00 0.00 1 1014.9
20260906142604 28 339 1.6 6.4 0.00 0.00 0.00 1 1014.9
20260906142504 28 340 1.6 6.4 0.00 0.00 0.00 1 1014.9
20260906142403 28 340 1.6 6.4 0.00 0.00 0.00 1 1014.9
20260906142306 27 340 1.6 6.4 0.00 0.00 0.00 1 1014.9
20260906142225 27 341 1.6 6.4 0.00 0.00 0.00 1 1014.9
20260906142125 27 341 1.6 4.8 0.00 0.00 0.00 1 1014.9
20260906142004 27 341 1.6 4.8 0.00 0.00 0.00 1 1014.8
20260906141904 27 341 1.6 4.8 0.00 0.00 0.00 1 1014.9
20260906141825 27 341 1.6 3.2 0.00 0.00 0.00 1 1014.8
20260906141704 27 341 1.6 3.2 0.00 0.00 0.00 1 1014.8
20260906141604 27 341 1.6 3.2 0.00 0.00 0.00 1 1014.8
20260906141504 27 341 1.6 3.2 0.00 0.00 0.00 1 1014.9
20260906141425 27 341 1.6 4.8 0.00 0.00 0.00 1 1014.8
20260906141304 27 351 3.2 6.4 0.00 0.00 0.00 1 1014.8
20260906141204 27 1 3.2 8.0 0.00 0.00 0.00 1 1014.8
20260906141104 27 14 3.2 8.0 0.00 0.00 0.00 1 1014.8
20260906141004 27 21 3.2 8.0 0.00 0.00 0.00 1 1014.8
20260906140903 27 25 3.2 8.0 0.00 0.00 0.00 1 1014.8
20260906140803 27 28 3.2 8.0 0.00 0.00 0.00 1 1014.8
20260906140704 27 34 3.2 8.0 0.00 0.00 0.00 1 1014.8
20260906140604 27 39 3.2 8.0 0.00 0.00 0.00 1 1014.8
20260906140504 27 44 3.2 8.0 0.00 0.00 0.00 1 1014.7
20260906140404 27 50 3.2 8.0 0.00 0.00 0.00 1 1014.7
20260906140325 27 52 3.2 8.0 0.00 0.00 0.00 1 1014.8
20260906140203 27 52 3.2 6.4 0.00 0.00 0.00 1 1014.8
20260906140104 27 52 3.2 6.4 0.00 0.00 0.00 1 1014.7
20260906140004 27 52 3.2 6.4 0.00 0.00 0.00 1 1014.7
20260906135904 27 52 3.2 6.4 0.00 0.00 0.00 1 1014.6
20260906135803 27 51 3.2 6.4 0.00 0.00 0.00 1 1014.7
20260906135725 27 51 3.2 6.4 0.00 0.00 0.00 1 1014.8
20260906135604 27 51 3.2 6.4 0.00 0.00 0.00 1 1014.7
20260906135504 27 51 3.2 6.4 0.00 0.00 0.00 1 1014.7
20260906135404 27 51 3.2 6.4 0.00 0.00 0.00 1 1014.7
20260906135306 27 51 3.2 6.4 0.00 0.00 0.00 1 1014.7
20260906135225 27 51 1.6 6.4 0.00 0.00 0.00 1 1014.7
20260906135103 27 51 1.6 6.4 0.00 0.00 0.00 1 1014.7
20260906135004 27 51 1.6 6.4 0.00 0.00 0.00 1 1014.6
20260906134925 27 51 1.6 6.4 0.00 0.00 0.00 1 1014.6
20260906134825 27 51 1.6 6.4 0.00 0.00 0.00 1 1014.6
20260906134704 27 51 1.6 6.4 0.00 0.00 0.00 1 1014.6
20260906134604 27 51 1.6 4.8 0.00 0.00 0.00 1 1014.6
20260906134504 27 51 1.6 4.8 0.00 0.00 0.00 1 1014.6
20260906134404 27 51 1.6 4.8 0.00 0.00 0.00 1 1014.6
20260906134325 27 51 1.6 4.8 0.00 0.00 0.00 1 1014.6
20260906134203 27 51 1.6 4.8 0.00 0.00 0.00 1 1014.5
20260906134125 27 51 1.6 4.8 0.00 0.00 0.00 1 1014.5
20260906134025 26 51 1.6 4.8 0.00 0.00 0.00 1 1014.5
20260906133903 26 51 1.6 4.8 0.00 0.00 0.00 1 1014.6
20260906133804 26 50 1.6 4.8 0.00 0.00 0.00 1 1014.5
20260906133704 26 50 1.6 4.8 0.00 0.00 0.00 1 1014.6
20260906133604 26 50 1.6 4.8 0.00 0.00 0.00 1 1014.5
20260906133504 26 50 1.6 4.8 0.00 0.00 0.00 1 1014.6
20260906133404 26 50 3.2 4.8 0.00 0.00 0.00 1 1014.5
20260906133304 26 50 3.2 4.8 0.00 0.00 0.00 1 1014.5
20260906133203 26 50 3.2 4.8 0.00 0.00 0.00 1 1014.5
20260906133104 26 50 3.2 6.4 0.00 0.00 0.00 1 1014.5
20260906133003 26 50 3.2 6.4 0.00 0.00 0.00 1 1014.6
20260906132904 26 51 3.2 6.4 0.00 0.00 0.00 1 1014.6
20260906132804 26 52 3.2 6.4 0.00 0.00 0.00 1 1014.5
20260906132724 26 52 3.2 6.4 0.00 0.00 0.00 1 1014.5
20260906132604 26 52 3.2 6.4 0.00 0.00 0.00 1 1014.5
20260906132504 26 53 3.2 6.4 0.00 0.00 0.00 1 1014.5
20260906132424 26 53 3.2 6.4 0.00 0.00 0.00 1 1014.5
20260906132306 26 53 3.2 6.4 0.00 0.00 0.00 1 1014.5
20260906132204 26 54 3.2 6.4 0.00 0.00 0.00 1 1014.5
20260906132103 26 54 3.2 6.4 0.00 0.00 0.00 1 1014.4
20260906132004 26 55 1.6 6.4 0.00 0.00 0.00 1 1014.4
20260906131903 26 55 1.6 6.4 0.00 0.00 0.00 1 1014.4
20260906131804 26 55 1.6 6.4 0.00 0.00 0.00 1 1014.4
20260906131704 26 55 3.2 6.4 0.00 0.00 0.00 1 1014.4
20260906131625 26 55 3.2 6.4 0.00 0.00 0.00 1 1014.4
20260906131504 26 55 3.2 6.4 0.00 0.00 0.00 1 1014.3
20260906131403 26 54 3.2 8.0 0.00 0.00 0.00 1 1014.3
20260906131304 26 54 3.2 8.0 0.00 0.00 0.00 1 1014.3
20260906131204 26 54 3.2 8.0 0.00 0.00 0.00 1 1014.3
20260906131103 26 54 3.2 8.0 0.00 0.00 0.00 1 1014.2
20260906131025 26 54 3.2 8.0 0.00 0.00 0.00 1 1014.3
20260906130903 26 54 3.2 8.0 0.00 0.00 0.00 1 1014.2
20260906130804 26 54 3.2 8.0 0.00 0.00 0.00 1 1014.2
20260906130703 26 53 3.2 8.0 0.00 0.00 0.00 1 1014.1
20260906130625 26 53 3.2 8.0 0.00 0.00 0.00 1 1014.1
20260906130504 26 53 3.2 8.0 0.00 0.00 0.00 1 1014.1
20260906130404 26 53 1.6 4.8 0.00 0.00 0.00 1 1014.1
20260906130325 26 52 1.6 4.8 0.00 0.00 0.00 1 1014.1
20260906130204 26 52 1.6 4.8 0.00 0.00 0.00 1 1014.1
20260906130104 26 52 1.6 4.8 0.00 0.00 0.00 1 1014.1
20260906130004 26 52 1.6 4.8 0.00 0.00 0.00 1 1014.1
20260906125904 26 51 1.6 4.8 0.00 0.00 0.00 1 1014.1
20260906125804 26 51 1.6 4.8 0.00 0.00 0.00 1 1014.1
20260906125704 26 51 1.6 4.8 0.00 0.00 0.00 1 1014.1
20260906125604 26 51 1.6 4.8 0.00 0.00 0.00 1 1014.1
20260906125504 26 51 1.6 4.8 0.00 0.00 0.00 1 1014.1
20260906125404 26 51 1.6 4.8 0.00 0.00 0.00 1 1014.0
20260906125306 26 51 1.6 4.8 0.00 0.00 0.00 1 1014.0
20260906125204 26 51 1.6 4.8 0.00 0.00 0.00 1 1014.0
20260906125104 26 50 3.2 4.8 0.00 0.00 0.00 1 1014.0
20260906125004 26 50 3.2 6.4 0.00 0.00 0.00 1 1014.0
20260906124925 26 50 1.6 6.4 0.00 0.00 0.00 1 1013.9
20260906124804 26 50 1.6 6.4 0.00 0.00 0.00 1 1013.9
20260906124725 26 50 1.6 6.4 0.00 0.00 0.00 1 1013.9
20260906124604 26 50 1.6 6.4 0.00 0.00 0.00 1 1013.9
20260906124525 26 50 3.2 6.4 0.00 0.00 0.00 1 1013.9
20260906124404 26 50 3.2 6.4 0.00 0.00 0.00 1 1013.8
20260906124325 26 49 3.2 6.4 0.00 0.00 0.00 1 1013.9
20260906124203 25 49 3.2 6.4 0.00 0.00 0.00 1 1013.9
20260906124125 25 49 1.6 6.4 0.00 0.00 0.00 1 1013.8
20260906124004 25 49 1.6 4.8 0.00 0.00 0.00 1 1013.8
20260906123904 25 49 1.6 4.8 0.00 0.00 0.00 1 1013.8
20260906123804 25 49 1.6 4.8 0.00 0.00 0.00 1 1013.8
20260906123704 25 49 1.6 4.8 0.00 0.00 0.00 1 1013.8
20260906123603 25 49 1.6 4.8 0.00 0.00 0.00 1 1013.8
20260906123503 25 49 1.6 4.8 0.00 0.00 0.00 1 1013.8
20260906123403 25 49 1.6 4.8 0.00 0.00 0.00 1 1013.8
20260906123304 25 49 0.0 3.2 0.00 0.00 0.00 1 1013.7
20260906123204 25 49 0.0 1.6 0.00 0.00 0.00 1 1013.7
20260906123125 25 49 0.0 1.6 0.00 0.00 0.00 1 1013.7
20260906123024 25 49 0.0 1.6 0.00 0.00 0.00 1 1013.6
20260906122904 25 49 0.0 1.6 0.00 0.00 0.00 1 1013.6
20260906122804 25 49 0.0 1.6 0.00 0.00 0.00 1 1013.6
20260906122703 25 49 0.0 1.6 0.00 0.00 0.00 1 1013.6
20260906122603 25 49 0.0 1.6 0.00 0.00 0.00 1 1013.6
20260906122504 25 49 0.0 1.6 0.00 0.00 0.00 1 1013.6
20260906122404 25 50 0.0 1.6 0.00 0.00 0.00 1 1013.5
20260906122306 25 50 0.0 1.6 0.00 0.00 0.00 1 1013.5
20260906122204 25 50 0.0 1.6 0.00 0.00 0.00 1 1013.5
20260906122125 25 50 0.0 1.6 0.00 0.00 0.00 1 1013.5
20260906122003 25 50 0.0 1.6 0.00 0.00 0.00 1 1013.5
20260906121903 25 50 0.0 1.6 0.00 0.00 0.00 1 1013.4
20260906121804 25 49 0.0 1.6 0.00 0.00 0.00 1 1013.4
20260906121704 25 49 0.0 1.6 0.00 0.00 0.00 1 1013.3
20260906121604 25 49 0.0 1.6 0.00 0.00 0.00 1 1013.3
20260906121504 25 49 0.0 1.6 0.00 0.00 0.00 1 1013.3
20260906121425 25 49 0.0 1.6 0.00 0.00 0.00 1 1013.3
20260906121325 25 49 0.0 1.6 0.00 0.00 0.00 1 1013.3
20260906121204 25 49 0.0 1.6 0.00 0.00 0.00 1 1013.2
20260906121104 25 49 0.0 1.6 0.00 0.00 0.00 1 1013.2
20260906121004 25 49 0.0 1.6 0.00 0.00 0.00 1 1013.2
20260906120925 25 49 0.0 1.6 0.00 0.00 0.00 1 1013.2
20260906120803 25 50 0.0 1.6 0.00 0.00 0.00 1 1013.2
20260906120704 25 51 0.0 1.6 0.00 0.00 0.00 1 1013.2
20260906120625 25 50 0.0 1.6 0.00 0.00 0.00 1 1013.2
20260906120504 25 50 0.0 1.6 0.00 0.00 0.00 1 1013.2
20260906120404 25 50 0.0 1.6 0.00 0.00 0.00 1 1013.2
20260906120303 25 50 0.0 1.6 0.00 0.00 0.00 1 1013.2
20260906120203 25 50 0.0 1.6 0.00 0.00 0.00 1 1013.1
20260906120104 25 50 0.0 1.6 0.00 0.00 0.00 1 1013.1
20260906120025 25 50 0.0 1.6 0.00 0.00 0.00 1 1013.1
20260906115903 25 50 0.0 1.6 0.00 0.00 0.00 1 1013.1
20260906115825 25 50 0.0 1.6 0.00 0.00 0.00 1 1013.1
20260906115703 25 50 0.0 1.6 0.00 0.00 0.00 1 1013.0
20260906115604 25 50 0.0 1.6 0.00 0.00 0.00 1 1013.0
20260906115504 25 50 0.0 1.6 0.00 0.00 0.00 1 1013.0
20260906115404 25 51 0.0 1.6 0.00 0.00 0.00 1 1013.0
20260906115306 25 51 0.0 1.6 0.00 0.00 0.00 1 1013.0
20260906115203 25 50 0.0 1.6 0.00 0.00 0.00 1 1013.0
20260906115103 25 50 0.0 1.6 0.00 0.00 0.00 1 1012.9
20260906115003 25 50 0.0 1.6 0.00 0.00 0.00 1 1012.9
20260906114903 25 50 0.0 1.6 0.00 0.00 0.00 1 1012.9
20260906114825 25 50 0.0 1.6 0.00 0.00 0.00 1 1012.9
20260906114703 25 49 0.0 1.6 0.00 0.00 0.00 1 1012.9
20260906114625 25 49 0.0 1.6 0.00 0.00 0.00 1 1012.9
20260906114504 25 49 0.0 1.6 0.00 0.00 0.00 1 1012.8
20260906114404 25 49 0.0 1.6 0.00 0.00 0.00 1 1012.8
20260906114325 25 49 0.0 1.6 0.00 0.00 0.00 1 1012.9
20260906114225 25 49 0.0 1.6 0.00 0.00 0.00 1 1012.9
20260906114125 25 49 0.0 1.6 0.00 0.00 0.00 1 1012.8
20260906114004 25 49 0.0 1.6 0.00 0.00 0.00 1 1012.8
20260906113904 25 49 0.0 1.6 0.00 0.00 0.00 1 1012.8
20260906113804 25 49 0.0 1.6 0.00 0.00 0.00 1 1012.8
20260906113704 25 49 0.0 1.6 0.00 0.00 0.00 1 1012.8
20260906113604 25 49 0.0 1.6 0.00 0.00 0.00 1 1012.8
20260906113504 25 49 0.0 1.6 0.00 0.00 0.00 1 1012.8
20260906113404 25 49 0.0 1.6 0.00 0.00 0.00 1 1012.8
20260906113303 25 49 0.0 1.6 0.00 0.00 0.00 1 1012.8
20260906113225 25 49 0.0 1.6 0.00 0.00 0.00 1 1012.8
20260906113103 26 49 0.0 1.6 0.00 0.00 0.00 1 1012.8
20260906113004 26 49 0.0 1.6 0.00 0.00 0.00 1 1012.7
20260906112925 26 49 0.0 1.6 0.00 0.00 0.00 1 1012.7
20260906112804 26 49 0.0 1.6 0.00 0.00 0.00 1 1012.7
20260906112703 26 49 0.0 1.6 0.00 0.00 0.00 1 1012.7
20260906112603 26 49 0.0 1.6 0.00 0.00 0.00 1 1012.7
20260906112504 26 49 0.0 1.6 0.00 0.00 0.00 1 1012.6
20260906112404 26 50 0.0 1.6 0.00 0.00 0.00 1 1012.6
20260906112306 26 50 0.0 1.6 0.00 0.00 0.00 1 1012.6
20260906112204 26 50 0.0 1.6 0.00 0.00 0.00 1 1012.6
20260906112103 26 50 0.0 1.6 0.00 0.00 0.00 1 1012.6
20260906112025 26 49 0.0 1.6 0.00 0.00 0.00 1 1012.6
20260906111903 26 0 0.0 1.6 0.00 0.00 0.00 1 1012.5
20260906111804 26 0 0.0 1.6 0.00 0.00 0.00 1 1012.6
20260906111703 26 0 0.0 1.6 0.00 0.00 0.00 1 1012.5
20260906111603 26 0 0.0 1.6 0.00 0.00 0.00 1 1012.5
20260906111504 26 0 0.0 0.0 0.00 0.00 0.00 1 1012.5
20260906111425 26 0 0.0 0.0 0.00 0.00 0.00 1 1012.5
20260906111303 26 0 0.0 0.0 0.00 0.00 0.00 1 1012.5
20260906111203 26 0 0.0 0.0 0.00 0.00 0.00 1 1012.5
20260906111104 26 0 0.0 0.0 0.00 0.00 0.00 1 1012.5
20260906111004 26 0 0.0 0.0 0.00 0.00 0.00 1 1012.5
20260906110925 26 0 0.0 0.0 0.00 0.00 0.00 1 1012.5
20260906110804 26 0 0.0 0.0 0.00 0.00 0.00 1 1012.5
20260906110704 26 0 0.0 0.0 0.00 0.00 0.00 1 1012.5
20260906110604 26 0 0.0 0.0 0.00 0.00 0.00 1 1012.5
20260906110504 26 49 0.0 1.6 0.00 0.00 0.00 1 1012.5
20260906110404 26 49 0.0 1.6 0.00 0.00 0.00 1 1012.5
20260906110303 26 49 0.0 1.6 0.00 0.00 0.00 1 1012.5
20260906110204 26 49 0.0 1.6 0.00 0.00 0.00 1 1012.5
20260906110104 26 49 0.0 1.6 0.00 0.00 0.00 1 1012.5
20260906110025 26 49 0.0 1.6 0.00 0.00 0.00 1 1012.5
20260906105903 26 49 0.0 3.2 0.00 0.00 0.00 1 1012.5
20260906105803 26 49 0.0 3.2 0.00 0.00 0.00 1 1012.5
20260906105703 26 49 0.0 3.2 0.00 0.00 0.00 1 1012.5
20260906105625 26 49 0.0 3.2 0.00 0.00 0.00 1 1012.5
20260906105504 26 49 0.0 3.2 0.00 0.00 0.00 1 1012.5
20260906105404 26 49 0.0 3.2 0.00 0.00 0.00 1 1012.5
20260906105306 26 49 0.0 3.2 0.00 0.00 0.00 1 1012.5
20260906105204 26 49 0.0 3.2 0.00 0.00 0.00 1 1012.5
20260906105104 26 49 0.0 3.2 0.00 0.00 0.00 1 1012.5
20260906105004 26 49 0.0 3.2 0.00 0.00 0.00 1 1012.5
20260906104924 26 49 0.0 3.2 0.00 0.00 0.00 1 1012.5
20260906104804 26 49 0.0 3.2 0.00 0.00 0.00 1 1012.5
20260906104704 26 49 0.0 3.2 0.00 0.00 0.00 1 1012.5
20260906104604 26 49 0.0 3.2 0.00 0.00 0.00 1 1012.5
20260906104504 26 49 0.0 1.6 0.00 0.00 0.00 1 1012.5
20260906104404 26 49 0.0 3.2 0.00 0.00 0.00 1 1012.5
20260906104304 26 49 1.6 3.2 0.00 0.00 0.00 1 1012.5
20260906104204 26 49 1.6 3.2 0.00 0.00 0.00 1 1012.5
20260906104103 26 49 1.6 3.2 0.00 0.00 0.00 1 1012.5
20260906104025 26 49 1.6 3.2 0.00 0.00 0.00 1 1012.5
20260906103903 26 49 1.6 3.2 0.00 0.00 0.00 1 1012.5
20260906103803 26 49 1.6 3.2 0.00 0.00 0.00 1 1012.5
20260906103703 26 49 1.6 3.2 0.00 0.00 0.00 1 1012.5
20260906103604 26 49 1.6 3.2 0.00 0.00 0.00 1 1012.5
20260906103504 26 49 1.6 3.2 0.00 0.00 0.00 1 1012.5
20260906103404 26 49 1.6 4.8 0.00 0.00 0.00 1 1012.5
20260906103325 26 49 1.6 4.8 0.00 0.00 0.00 1 1012.5
20260906103225 26 49 0.0 4.8 0.00 0.00 0.00 1 1012.6
20260906103104 26 49 1.6 4.8 0.00 0.00 0.00 1 1012.6
20260906103004 26 49 1.6 4.8 0.00 0.00 0.00 1 1012.6
20260906102903 26 49 1.6 4.8 0.00 0.00 0.00 1 1012.6
20260906102803 26 49 1.6 4.8 0.00 0.00 0.00 1 1012.5
20260906102704 27 49 1.6 4.8 0.00 0.00 0.00 1 1012.5
20260906102604 27 49 1.6 4.8 0.00 0.00 0.00 1 1012.5
20260906102504 27 49 1.6 4.8 0.00 0.00 0.00 1 1012.5
20260906102403 27 49 1.6 3.2 0.00 0.00 0.00 1 1012.5
20260906102306 27 49 1.6 3.2 0.00 0.00 0.00 1 1012.5
20260906102204 27 49 1.6 3.2 0.00 0.00 0.00 1 1012.5
20260906102103 27 49 1.6 3.2 0.00 0.00 0.00 1 1012.5
20260906102003 27 49 1.6 3.2 0.00 0.00 0.00 1 1012.5
20260906101903 27 49 1.6 3.2 0.00 0.00 0.00 1 1012.5
20260906101804 27 49 1.6 3.2 0.00 0.00 0.00 1 1012.5
20260906101703 27 49 1.6 3.2 0.00 0.00 0.00 1 1012.5
20260906101603 27 49 1.6 3.2 0.00 0.00 0.00 1 1012.5
20260906101503 27 49 1.6 3.2 0.00 0.00 0.00 1 1012.5
20260906101404 27 49 1.6 3.2 0.00 0.00 0.00 1 1012.4
20260906101325 27 49 1.6 3.2 0.00 0.00 0.00 1 1012.4
20260906101203 27 49 1.6 4.8 0.00 0.00 0.00 1 1012.4
20260906101125 27 49 1.6 4.8 0.00 0.00 0.00 1 1012.3
20260906101003 27 49 1.6 4.8 0.00 0.00 0.00 1 1012.4
20260906100904 27 49 1.6 4.8 0.00 0.00 0.00 1 1012.4
20260906100824 27 49 3.2 6.4 0.00 0.00 0.00 1 1012.4
20260906100704 27 49 3.2 6.4 0.00 0.00 0.00 1 1012.4
20260906100603 27 48 3.2 8.0 0.00 0.00 0.00 1 1012.4
20260906100503 27 47 3.2 8.0 0.00 0.00 0.00 1 1012.4
20260906100424 27 47 3.2 8.0 0.00 0.00 0.00 1 1012.4
20260906100303 27 50 3.2 8.0 0.00 0.00 0.00 1 1012.4
20260906100203 27 53 4.8 8.0 0.00 0.00 0.00 1 1012.4
20260906100104 27 55 4.8 8.0 0.00 0.00 0.00 1 1012.4
20260906100004 27 56 4.8 8.0 0.00 0.00 0.00 1 1012.4
20260906095904 27 57 4.8 8.0 0.00 0.00 0.00 1 1012.4
20260906095804 27 59 4.8 8.0 0.00 0.00 0.00 1 1012.4
20260906095724 27 60 4.8 8.0 0.00 0.00 0.00 1 1012.4
20260906095603 27 64 4.8 8.0 0.00 0.00 0.00 1 1012.5
20260906095504 27 66 4.8 6.4 0.00 0.00 0.00 1 1012.5
20260906095403 27 68 4.8 8.0 0.00 0.00 0.00 1 1012.5
20260906095306 27 68 4.8 8.0 0.00 0.00 0.00 1 1012.5
20260906095203 27 68 4.8 8.0 0.00 0.00 0.00 1 1012.4
20260906095103 27 68 4.8 8.0 0.00 0.00 0.00 1 1012.4
20260906095004 27 69 4.8 8.0 0.00 0.00 0.00 1 1012.5
20260906094903 27 68 4.8 11.3 0.00 0.00 0.00 1 1012.5
20260906094803 27 66 4.8 11.3 0.00 0.00 0.00 1 1012.4
20260906094725 27 66 4.8 11.3 0.00 0.00 0.00 1 1012.5
20260906094624 27 64 4.8 11.3 0.00 0.00 0.00 1 1012.5
20260906094504 27 62 4.8 11.3 0.00 0.00 0.00 1 1012.5
20260906094403 27 61 4.8 11.3 0.00 0.00 0.00 1 1012.5
20260906094304 27 60 4.8 11.3 0.00 0.00 0.00 1 1012.5
20260906094203 27 59 4.8 11.3 0.00 0.00 0.00 1 1012.5
20260906094103 27 57 4.8 11.3 0.00 0.00 0.00 1 1012.5
20260906094004 27 56 4.8 11.3 0.00 0.00 0.00 1 1012.5
20260906093904 27 55 4.8 9.7 0.00 0.00 0.00 1 1012.5
20260906093804 27 55 4.8 9.7 0.00 0.00 0.00 1 1012.5
20260906093703 27 55 4.8 9.7 0.00 0.00 0.00 1 1012.5
20260906093603 27 56 4.8 8.0 0.00 0.00 0.00 1 1012.4
20260906093504 27 55 4.8 8.0 0.00 0.00 0.00 1 1012.5
20260906093403 27 55 4.8 8.0 0.00 0.00 0.00 1 1012.5
20260906093304 27 55 3.2 8.0 0.00 0.00 0.00 1 1012.4
20260906093224 27 55 3.2 8.0 0.00 0.00 0.00 1 1012.4
20260906093124 27 55 3.2 8.0 0.00 0.00 0.00 1 1012.4
20260906093003 27 54 3.2 8.0 0.00 0.00 0.00 1 1012.4
20260906092903 27 54 3.2 8.0 0.00 0.00 0.00 1 1012.4
20260906092803 27 54 3.2 8.0 0.00 0.00 0.00 1 1012.4
20260906092703 27 54 3.2 8.0 0.00 0.00 0.00 1 1012.3
20260906092604 27 53 3.2 8.0 0.00 0.00 0.00 1 1012.4
20260906092503 27 53 3.2 8.0 0.00 0.00 0.00 1 1012.4
20260906092404 27 53 3.2 8.0 0.00 0.00 0.00 1 1012.4
20260906092306 27 53 3.2 8.0 0.00 0.00 0.00 1 1012.4
20260906092203 27 52 3.2 8.0 0.00 0.00 0.00 1 1012.4
20260906092103 27 52 3.2 8.0 0.00 0.00 0.00 1 1012.4
20260906092004 27 52 3.2 6.4 0.00 0.00 0.00 1 1012.4
20260906091903 27 51 3.2 6.4 0.00 0.00 0.00 1 1012.3
20260906091824 27 51 3.2 6.4 0.00 0.00 0.00 1 1012.4
20260906091703 27 51 3.2 6.4 0.00 0.00 0.00 1 1012.3
20260906091603 27 50 3.2 6.4 0.00 0.00 0.00 1 1012.3
20260906091504 27 50 3.2 6.4 0.00 0.00 0.00 1 1012.4
20260906091404 27 50 3.2 6.4 0.00 0.00 0.00 1 1012.4
20260906091303 27 50 3.2 6.4 0.00 0.00 0.00 1 1012.3
20260906091203 27 50 3.2 6.4 0.00 0.00 0.00 1 1012.3
20260906091103 27 49 3.2 8.0 0.00 0.00 0.00 1 1012.4
20260906091025 27 49 3.2 8.0 0.00 0.00 0.00 1 1012.4
20260906090903 27 49 3.2 8.0 0.00 0.00 0.00 1 1012.4
20260906090803 27 49 3.2 8.0 0.00 0.00 0.00 1 1012.4
20260906090703 27 49 3.2 8.0 0.00 0.00 0.00 1 1012.4
20260906090603 27 49 3.2 8.0 0.00 0.00 0.00 1 1012.4
20260906090504 27 49 3.2 8.0 0.00 0.00 0.00 1 1012.4
20260906090403 27 49 3.2 8.0 0.00 0.00 0.00 1 1012.4
20260906090304 27 49 3.2 8.0 0.00 0.00 0.00 1 1012.4
20260906090204 27 49 3.2 8.0 0.00 0.00 0.00 1 1012.4
20260906090103 27 48 3.2 8.0 0.00 0.00 0.00 1 1012.4
20260906090004 27 48 3.2 8.0 0.00 0.00 0.00 1 1012.4
20260906085903 27 48 3.2 8.0 0.00 0.00 0.00 1 1012.4
20260906085804 27 48 3.2 8.0 0.00 0.00 0.00 1 1012.5
20260906085704 27 48 3.2 8.0 0.00 0.00 0.00 1 1012.4
20260906085604 27 48 3.2 8.0 0.00 0.00 0.00 1 1012.5
20260906085504 27 47 3.2 8.0 0.00 0.00 0.00 1 1012.4
20260906085403 27 47 3.2 8.0 0.00 0.00 0.00 1 1012.5
20260906085306 27 47 3.2 8.0 0.00 0.00 0.00 1 1012.5
20260906085203 27 47 3.2 8.0 0.00 0.00 0.00 1 1012.5
20260906085103 27 46 4.8 8.0 0.00 0.00 0.00 1 1012.6
20260906085004 27 46 4.8 8.0 0.00 0.00 0.00 1 1012.5
20260906084903 27 45 4.8 8.0 0.00 0.00 0.00 1 1012.6
20260906084824 27 44 4.8 8.0 0.00 0.00 0.00 1 1012.5
20260906084703 27 43 4.8 8.0 0.00 0.00 0.00 1 1012.5
20260906084603 27 42 4.8 9.7 0.00 0.00 0.00 1 1012.5
20260906084504 27 42 4.8 9.7 0.00 0.00 0.00 1 1012.5
20260906084425 27 42 4.8 9.7 0.00 0.00 0.00 1 1012.5
20260906084304 27 42 4.8 9.7 0.00 0.00 0.00 1 1012.5
20260906084204 27 42 4.8 12.9 0.00 0.00 0.00 1 1012.5
20260906084104 27 44 4.8 12.9 0.00 0.00 0.00 1 1012.5
20260906084003 27 46 4.8 12.9 0.00 0.00 0.00 1 1012.5
20260906083904 27 48 4.8 12.9 0.00 0.00 0.00 1 1012.5
20260906083804 27 48 4.8 12.9 0.00 0.00 0.00 1 1012.5
20260906083704 27 49 6.4 12.9 0.00 0.00 0.00 1 1012.5
20260906083604 27 51 6.4 12.9 0.00 0.00 0.00 1 1012.6
20260906083504 27 51 6.4 12.9 0.00 0.00 0.00 1 1012.6
20260906083403 27 52 6.4 12.9 0.00 0.00 0.00 1 1012.6
20260906083303 27 52 6.4 12.9 0.00 0.00 0.00 1 1012.6
20260906083206 27 52 6.4 11.3 0.00 0.00 0.00 1 1012.6
20260906083104 27 52 6.4 11.3 0.00 0.00 0.00 1 1012.5
20260906083003 27 52 6.4 11.3 0.00 0.00 0.00 1 1012.5
20260906082903 27 52 6.4 11.3 0.00 0.00 0.00 1 1012.5
20260906082825 27 53 6.4 11.3 0.00 0.00 0.00 1 1012.5
20260906082704 27 53 6.4 11.3 0.00 0.00 0.00 1 1012.6
20260906082603 27 51 6.4 11.3 0.00 0.00 0.00 1 1012.5
20260906082504 27 50 6.4 12.9 0.00 0.00 0.00 1 1012.5
20260906082425 27 49 6.4 12.9 0.00 0.00 0.00 1 1012.5
20260906082306 27 47 6.4 12.9 0.00 0.00 0.00 1 1012.5
20260906082203 27 47 6.4 12.9 0.00 0.00 0.00 1 1012.5
20260906082103 27 47 6.4 12.9 0.00 0.00 0.00 1 1012.5
20260906082004 27 44 6.4 12.9 0.00 0.00 0.00 1 1012.5
20260906081903 27 42 6.4 12.9 0.00 0.00 0.00 1 1012.5
20260906081804 28 41 6.4 12.9 0.00 0.00 0.00 1 1012.5
20260906081703 28 41 6.4 12.9 0.00 0.00 0.00 1 1012.5
20260906081603 28 42 6.4 12.9 0.00 0.00 0.00 1 1012.5
20260906081504 28 45 6.4 12.9 0.00 0.00 0.00 1 1012.5
20260906081404 28 45 6.4 12.9 0.00 0.00 0.00 1 1012.6
20260906081303 28 46 6.4 12.9 0.00 0.00 0.00 1 1012.6
20260906081204 28 46 6.4 12.9 0.00 0.00 0.00 1 1012.6
20260906081104 28 47 8.0 12.9 0.00 0.00 0.00 1 1012.6
20260906081004 28 49 6.4 12.9 0.00 0.00 0.00 1 1012.6
20260906080904 28 50 6.4 12.9 0.00 0.00 0.00 1 1012.6
20260906080804 28 53 8.0 12.9 0.00 0.00 0.00 1 1012.6
20260906080724 28 52 8.0 12.9 0.00 0.00 0.00 1 1012.6
20260906080604 28 53 8.0 12.9 0.00 0.00 0.00 1 1012.6
20260906080504 28 52 6.4 12.9 0.00 0.00 0.00 1 1012.6
20260906080425 28 53 6.4 12.9 0.00 0.00 0.00 1 1012.7
20260906080303 28 53 6.4 12.9 0.00 0.00 0.00 1 1012.7
20260906080203 28 54 6.4 12.9 0.00 0.00 0.00 1 1012.7
20260906080103 28 52 4.8 12.9 0.00 0.00 0.00 1 1012.7
20260906080004 28 52 4.8 12.9 0.00 0.00 0.00 1 1012.7
20260906075925 28 50 4.8 12.9 0.00 0.00 0.00 1 1012.7
20260906075824 28 47 4.8 12.9 0.00 0.00 0.00 1 1012.7
20260906075704 28 50 4.8 12.9 0.00 0.00 0.00 1 1012.8
20260906075603 28 52 4.8 12.9 0.00 0.00 0.00 1 1012.7
20260906075503 28 56 4.8 12.9 0.00 0.00 0.00 1 1012.7
20260906075403 28 58 4.8 12.9 0.00 0.00 0.00 1 1012.8
20260906075306 28 56 6.4 12.9 0.00 0.00 0.00 1 1012.8
20260906075203 28 54 6.4 16.1 0.00 0.00 0.00 1 1012.8
20260906075125 28 54 8.0 16.1 0.00 0.00 0.00 1 1012.8
20260906075004 28 52 8.0 16.1 0.00 0.00 0.00 1 1012.9
20260906074903 28 53 6.4 16.1 0.00 0.00 0.00 1 1012.9
20260906074803 28 54 6.4 16.1 0.00 0.00 0.00 1 1012.8
20260906074725 28 53 6.4 16.1 0.00 0.00 0.00 1 1012.9
20260906074603 28 47 8.0 17.7 0.00 0.00 0.00 1 1012.9
20260906074503 28 44 8.0 17.7 0.00 0.00 0.00 1 1012.9
20260906074403 28 43 8.0 17.7 0.00 0.00 0.00 1 1012.9
20260906074303 28 43 8.0 17.7 0.00 0.00 0.00 1 1012.9
20260906074204 28 45 8.0 17.7 0.00 0.00 0.00 1 1012.9
20260906074103 28 45 6.4 17.7 0.00 0.00 0.00 1 1012.9
20260906074004 28 46 6.4 17.7 0.00 0.00 0.00 1 1012.9
20260906073904 28 45 6.4 17.7 0.00 0.00 0.00 1 1013.0
20260906073804 28 44 6.4 17.7 0.00 0.00 0.00 1 1012.9
20260906073704 28 44 6.4 17.7 0.00 0.00 0.00 1 1013.0
20260906073604 28 46 6.4 16.1 0.00 0.00 0.00 1 1013.0
20260906073524 28 46 6.4 12.9 0.00 0.00 0.00 1 1013.0
20260906073403 28 47 6.4 12.9 0.00 0.00 0.00 1 1013.0
20260906073303 28 47 6.4 12.9 0.00 0.00 0.00 1 1013.0
20260906073204 28 47 6.4 12.9 0.00 0.00 0.00 1 1013.0
20260906073104 28 46 6.4 14.5 0.00 0.00 0.00 1 1013.0
20260906073004 28 45 6.4 14.5 0.00 0.00 0.00 1 1013.1
20260906072924 28 45 6.4 14.5 0.00 0.00 0.00 1 1013.1
20260906072825 28 45 6.4 14.5 0.00 0.00 0.00 1 1013.1
20260906072703 28 44 6.4 14.5 0.00 0.00 0.00 1 1013.1
20260906072603 28 44 6.4 14.5 0.00 0.00 0.00 1 1013.1
20260906072504 28 43 6.4 14.5 0.00 0.00 0.00 1 1013.1
20260906072404 28 43 6.4 14.5 0.00 0.00 0.00 1 1013.1
20260906072306 28 42 6.4 14.5 0.00 0.00 0.00 1 1013.1
20260906072203 28 41 4.8 14.5 0.00 0.00 0.00 1 1013.1
20260906072103 28 41 4.8 11.3 0.00 0.00 0.00 1 1013.1
20260906072003 28 40 4.8 11.3 0.00 0.00 0.00 1 1013.1
20260906071925 28 41 4.8 11.3 0.00 0.00 0.00 1 1013.1
20260906071825 28 40 4.8 11.3 0.00 0.00 0.00 1 1013.1
20260906071703 28 39 4.8 11.3 0.00 0.00 0.00 1 1013.2
20260906071603 28 38 4.8 11.3 0.00 0.00 0.00 1 1013.2
20260906071504 28 37 4.8 11.3 0.00 0.00 0.00 1 1013.2
20260906071403 28 35 4.8 11.3 0.00 0.00 0.00 1 1013.2
20260906071324 28 35 6.4 12.9 0.00 0.00 0.00 1 1013.2
20260906071224 28 34 6.4 12.9 0.00 0.00 0.00 1 1013.2
20260906071124 28 35 6.4 12.9 0.00 0.00 0.00 1 1013.3
20260906071004 28 36 6.4 12.9 0.00 0.00 0.00 1 1013.3
20260906070904 28 38 8.0 12.9 0.00 0.00 0.00 1 1013.3
20260906070803 28 39 8.0 14.5 0.00 0.00 0.00 1 1013.3
20260906070703 28 39 8.0 14.5 0.00 0.00 0.00 1 1013.3
20260906070603 28 40 8.0 14.5 0.00 0.00 0.00 1 1013.3
20260906070503 28 41 8.0 14.5 0.00 0.00 0.00 1 1013.3
20260906070403 28 42 8.0 14.5 0.00 0.00 0.00 1 1013.3
20260906070303 28 45 6.4 14.5 0.00 0.00 0.00 1 1013.3
20260906070204 28 45 6.4 14.5 0.00 0.00 0.00 1 1013.4
20260906070104 28 47 4.8 14.5 0.00 0.00 0.00 1 1013.4
20260906070004 28 48 4.8 14.5 0.00 0.00 0.00 1 1013.4
20260906065903 28 48 4.8 14.5 0.00 0.00 0.00 1 1013.4
20260906065825 28 47 4.8 11.3 0.00 0.00 0.00 1 1013.3
20260906065703 28 47 4.8 11.3 0.00 0.00 0.00 1 1013.3
20260906065603 28 47 4.8 9.7 0.00 0.00 0.00 1 1013.3
20260906065504 28 48 4.8 9.7 0.00 0.00 0.00 1 1013.3
20260906065403 28 48 4.8 9.7 0.00 0.00 0.00 1 1013.3
20260906065305 28 47 4.8 9.7 0.00 0.00 0.00 1 1013.3
20260906065203 28 47 4.8 9.7 0.00 0.00 0.00 1 1013.4
20260906065104 28 47 4.8 9.7 0.00 0.00 0.00 1 1013.3
20260906065024 28 46 4.8 9.7 0.00 0.00 0.00 1 1013.4
20260906064904 28 47 4.8 9.7 0.00 0.00 0.00 1 1013.4
20260906064803 28 49 3.2 9.7 0.00 0.00 0.00 1 1013.4
20260906064704 28 50 3.2 9.7 0.00 0.00 0.00 1 1013.4
20260906064604 28 50 4.8 9.7 0.00 0.00 0.00 1 1013.4
20260906064504 28 50 4.8 9.7 0.00 0.00 0.00 1 1013.4
20260906064404 28 49 4.8 9.7 0.00 0.00 0.00 1 1013.5
20260906064303 28 49 4.8 9.7 0.00 0.00 0.00 1 1013.5
20260906064224 28 49 4.8 9.7 0.00 0.00 0.00 1 1013.5
20260906064103 28 47 4.8 9.7 0.00 0.00 0.00 1 1013.5
20260906064025 28 46 4.8 9.7 0.00 0.00 0.00 1 1013.5
20260906063903 28 45 4.8 9.7 0.00 0.00 0.00 1 1013.5
20260906063804 28 43 4.8 9.7 0.00 0.00 0.00 1 1013.5
20260906063703 28 43 4.8 9.7 0.00 0.00 0.00 1 1013.5
20260906063603 28 43 4.8 9.7 0.00 0.00 0.00 1 1013.5
20260906063503 28 42 4.8 9.7 0.00 0.00 0.00 1 1013.6
20260906063404 28 41 4.8 9.7 0.00 0.00 0.00 1 1013.5
20260906063303 28 41 4.8 9.7 0.00 0.00 0.00 1 1013.5
20260906063203 28 41 4.8 9.7 0.00 0.00 0.00 1 1013.6
20260906063124 28 42 4.8 11.3 0.00 0.00 0.00 1 1013.5
20260906063024 28 44 4.8 11.3 0.00 0.00 0.00 1 1013.6
20260906062903 28 45 4.8 11.3 0.00 0.00 0.00 1 1013.6
20260906062803 28 45 4.8 12.9 0.00 0.00 0.00 1 1013.5
20260906062703 28 45 4.8 12.9 0.00 0.00 0.00 1 1013.6
20260906062624 28 45 4.8 12.9 0.00 0.00 0.00 1 1013.6
20260906062504 28 45 4.8 12.9 0.00 0.00 0.00 1 1013.6
20260906062424 28 45 4.8 12.9 0.00 0.00 0.00 1 1013.6
20260906062306 28 44 4.8 12.9 0.00 0.00 0.00 1 1013.6
20260906062203 28 44 4.8 12.9 0.00 0.00 0.00 1 1013.6
20260906062104 28 43 4.8 12.9 0.00 0.00 0.00 1 1013.6
20260906062004 28 41 4.8 12.9 0.00 0.00 0.00 1 1013.7
20260906061903 28 40 4.8 12.9 0.00 0.00 0.00 1 1013.6
20260906061804 28 38 4.8 9.7 0.00 0.00 0.00 1 1013.7
20260906061703 28 38 4.8 9.7 0.00 0.00 0.00 1 1013.7
20260906061604 28 38 4.8 9.7 0.00 0.00 0.00 1 1013.7
20260906061504 28 37 4.8 9.7 0.00 0.00 0.00 1 1013.7
20260906061404 28 38 4.8 9.7 0.00 0.00 0.00 1 1013.8
20260906061304 28 39 4.8 9.7 0.00 0.00 0.00 1 1013.8
20260906061203 28 40 4.8 8.0 0.00 0.00 0.00 1 1013.8
20260906061103 28 41 4.8 8.0 0.00 0.00 0.00 1 1013.8
20260906061004 28 42 4.8 8.0 0.00 0.00 0.00 1 1013.8
20260906060903 28 44 4.8 8.0 0.00 0.00 0.00 1 1013.8
20260906060803 28 38 4.8 11.3 0.00 0.00 0.00 1 1013.8
20260906060703 28 38 4.8 11.3 0.00 0.00 0.00 1 1013.8
20260906060603 28 38 4.8 11.3 0.00 0.00 0.00 1 1013.8
20260906060503 28 38 4.8 11.3 0.00 0.00 0.00 1 1013.8
20260906060404 28 36 4.8 11.3 0.00 0.00 0.00 1 1013.8
20260906060304 28 35 4.8 11.3 0.00 0.00 0.00 1 1013.8
20260906060204 28 34 4.8 11.3 0.00 0.00 0.00 1 1013.8
20260906060104 28 33 4.8 11.3 0.00 0.00 0.00 1 1013.8
20260906060003 28 32 4.8 11.3 0.00 0.00 0.00 1 1013.8
20260906055924 28 31 4.8 11.3 0.00 0.00 0.00 1 1013.8
20260906055824 28 34 4.8 11.3 0.00 0.00 0.00 1 1013.7
20260906055703 28 36 4.8 9.7 0.00 0.00 0.00 1 1013.7
20260906055625 28 36 4.8 9.7 0.00 0.00 0.00 1 1013.8
20260906055525 28 35 3.2 9.7 0.00 0.00 0.00 1 1013.8
20260906055424 28 34 3.2 9.7 0.00 0.00 0.00 1 1013.7
20260906055306 28 32 3.2 9.7 0.00 0.00 0.00 1 1013.8
20260906055224 28 31 3.2 9.7 0.00 0.00 0.00 1 1013.7
20260906055104 28 30 3.2 9.7 0.00 0.00 0.00 1 1013.7
20260906055003 28 29 3.2 9.7 0.00 0.00 0.00 1 1013.7
20260906054903 28 27 3.2 8.0 0.00 0.00 0.00 1 1013.7
20260906054803 28 25 3.2 6.4 0.00 0.00 0.00 1 1013.6
20260906054703 28 24 3.2 9.7 0.00 0.00 0.00 1 1013.6
20260906054604 28 24 3.2 9.7 0.00 0.00 0.00 1 1013.6
20260906054504 28 23 3.2 9.7 0.00 0.00 0.00 1 1013.6
20260906054403 28 22 3.2 9.7 0.00 0.00 0.00 1 1013.6
20260906054303 28 22 3.2 9.7 0.00 0.00 0.00 1 1013.6
20260906054204 28 21 3.2 9.7 0.00 0.00 0.00 1 1013.5
20260906054103 28 21 3.2 9.7 0.00 0.00 0.00 1 1013.5
20260906054003 28 21 3.2 9.7 0.00 0.00 0.00 1 1013.5
20260906053903 28 21 3.2 9.7 0.00 0.00 0.00 1 1013.5
20260906053803 28 20 3.2 9.7 0.00 0.00 0.00 1 1013.4
20260906053704 28 21 3.2 8.0 0.00 0.00 0.00 1 1013.5
20260906053604 28 21 3.2 8.0 0.00 0.00 0.00 1 1013.5
20260906053525 28 21 3.2 8.0 0.00 0.00 0.00 1 1013.5
20260906053424 28 21 3.2 8.0 0.00 0.00 0.00 1 1013.5
20260906053303 28 21 3.2 8.0 0.00 0.00 0.00 1 1013.5
20260906053203 28 21 3.2 9.7 0.00 0.00 0.00 1 1013.5
20260906053103 28 21 3.2 9.7 0.00 0.00 0.00 1 1013.5
20260906053003 28 21 3.2 9.7 0.00 0.00 0.00 1 1013.6
20260906052903 28 21 3.2 9.7 0.00 0.00 0.00 1 1013.6
20260906052803 28 21 3.2 9.7 0.00 0.00 0.00 1 1013.6
20260906052703 28 22 3.2 9.7 0.00 0.00 0.00 1 1013.6
20260906052604 28 22 3.2 9.7 0.00 0.00 0.00 1 1013.6
20260906052503 28 22 3.2 9.7 0.00 0.00 0.00 1 1013.6
20260906052404 28 23 3.2 9.7 0.00 0.00 0.00 1 1013.6
20260906052305 28 23 3.2 9.7 0.00 0.00 0.00 1 1013.6
20260906052204 28 23 3.2 9.7 0.00 0.00 0.00 1 1013.5
20260906052103 28 24 3.2 9.7 0.00 0.00 0.00 1 1013.6
20260906052003 28 24 3.2 9.7 0.00 0.00 0.00 1 1013.6
20260906051903 28 24 3.2 9.7 0.00 0.00 0.00 1 1013.6
20260906051803 28 24 3.2 9.7 0.00 0.00 0.00 1 1013.6
20260906051724 28 24 3.2 9.7 0.00 0.00 0.00 1 1013.6
20260906051603 28 24 3.2 9.7 0.00 0.00 0.00 1 1013.6
20260906051503 28 24 3.2 9.7 0.00 0.00 0.00 1 1013.6
20260906051403 28 25 3.2 9.7 0.00 0.00 0.00 1 1013.6
20260906051304 28 25 3.2 9.7 0.00 0.00 0.00 1 1013.6
20260906051204 28 25 3.2 8.0 0.00 0.00 0.00 1 1013.6
20260906051103 28 25 3.2 8.0 0.00 0.00 0.00 1 1013.6
20260906051003 28 25 3.2 8.0 0.00 0.00 0.00 1 1013.6
20260906050924 28 25 3.2 8.0 0.00 0.00 0.00 1 1013.7
20260906050803 28 24 3.2 8.0 0.00 0.00 0.00 1 1013.8
20260906050724 28 24 3.2 8.0 0.00 0.00 0.00 1 1013.8
20260906050603 28 18 3.2 9.7 0.00 0.00 0.00 1 1013.8
20260906050503 28 12 3.2 9.7 0.00 0.00 0.00 1 1013.8
20260906050403 28 357 3.2 9.7 0.00 0.00 0.00 1 1013.8
20260906050324 28 348 3.2 9.7 0.00 0.00 0.00 1 1013.8
20260906050203 28 338 3.2 9.7 0.00 0.00 0.00 1 1013.8
20260906050004 28 311 3.2 9.7 0.00 0.00 0.00 1 1013.7
20260906045924 28 304 3.2 9.7 0.00 0.00 0.00 1 1013.7
20260906045803 28 280 3.2 9.7 0.00 0.00 0.00 1 1013.6
20260906045704 28 269 3.2 8.0 0.00 0.00 0.00 1 1013.7
20260906045603 28 267 3.2 8.0 0.00 0.00 0.00 1 1013.6
20260906045504 28 266 3.2 8.0 0.00 0.00 0.00 1 1013.7
20260906045403 28 264 3.2 8.0 0.00 0.00 0.00 1 1013.7
20260906045306 28 263 3.2 8.0 0.00 0.00 0.00 1 1013.7
20260906045203 28 262 3.2 6.4 0.00 0.00 0.00 1 1013.7
20260906045104 28 262 3.2 6.4 0.00 0.00 0.00 1 1013.7
20260906045003 28 261 3.2 8.0 0.00 0.00 0.00 1 1013.6
20260906044904 28 261 3.2 8.0 0.00 0.00 0.00 1 1013.6
20260906044803 28 261 3.2 8.0 0.00 0.00 0.00 1 1013.6
20260906044703 28 261 3.2 8.0 0.00 0.00 0.00 1 1013.6
20260906044603 28 260 3.2 8.0 0.00 0.00 0.00 1 1013.7
20260906044524 28 260 3.2 8.0 0.00 0.00 0.00 1 1013.7
20260906044403 28 260 3.2 8.0 0.00 0.00 0.00 1 1013.7
20260906044303 28 260 3.2 8.0 0.00 0.00 0.00 1 1013.8
20260906044203 28 259 3.2 8.0 0.00 0.00 0.00 1 1013.8
20260906044124 28 259 3.2 8.0 0.00 0.00 0.00 1 1013.8
20260906044003 28 259 3.2 6.4 0.00 0.00 0.00 1 1013.8
20260906043924 28 258 3.2 6.4 0.00 0.00 0.00 1 1013.8
20260906043803 29 258 3.2 6.4 0.00 0.00 0.00 1 1013.8
20260906043703 29 258 3.2 6.4 0.00 0.00 0.00 1 1013.9
20260906043625 29 257 3.2 6.4 0.00 0.00 0.00 1 1013.9
20260906043525 29 257 3.2 6.4 0.00 0.00 0.00 1 1013.9
20260906043403 29 257 3.2 6.4 0.00 0.00 0.00 1 1013.9
20260906043303 29 256 3.2 6.4 0.00 0.00 0.00 1 1013.8
20260906043204 29 256 3.2 8.0 0.00 0.00 0.00 1 1013.8
20260906043124 29 256 3.2 8.0 0.00 0.00 0.00 1 1013.8
20260906043003 29 255 3.2 8.0 0.00 0.00 0.00 1 1013.8
20260906042903 29 255 3.2 8.0 0.00 0.00 0.00 1 1013.8
20260906042803 29 255 3.2 8.0 0.00 0.00 0.00 1 1013.8
20260906042703 29 256 3.2 8.0 0.00 0.00 0.00 1 1013.8
20260906042624 29 258 3.2 8.0 0.00 0.00 0.00 1 1013.8
20260906042504 29 264 3.2 8.0 0.00 0.00 0.00 1 1013.8
20260906042403 29 266 3.2 8.0 0.00 0.00 0.00 1 1013.8
20260906042306 29 269 4.8 9.7 0.00 0.00 0.00 1 1013.8
20260906042203 29 273 4.8 9.7 0.00 0.00 0.00 1 1013.7
20260906042104 29 275 4.8 9.7 0.00 0.00 0.00 1 1013.7
20260906042003 29 276 4.8 9.7 0.00 0.00 0.00 1 1013.7
20260906041925 29 278 4.8 9.7 0.00 0.00 0.00 1 1013.6
20260906041803 29 282 4.8 9.7 0.00 0.00 0.00 1 1013.7
20260906041704 29 283 4.8 9.7 0.00 0.00 0.00 1 1013.6
20260906041603 29 282 3.2 9.7 0.00 0.00 0.00 1 1013.6
20260906041503 29 284 4.8 9.7 0.00 0.00 0.00 1 1013.6
20260906041403 29 286 4.8 9.7 0.00 0.00 0.00 1 1013.6
20260906041303 29 288 4.8 9.7 0.00 0.00 0.00 1 1013.6
20260906041203 29 292 4.8 9.7 0.00 0.00 0.00 1 1013.6
20260906041103 29 296 3.2 9.7 0.00 0.00 0.00 1 1013.5
20260906041004 29 298 3.2 9.7 0.00 0.00 0.00 1 1013.5
20260906040904 29 300 3.2 9.7 0.00 0.00 0.00 1 1013.6
20260906040803 29 300 3.2 11.3 0.00 0.00 0.00 1 1013.6
20260906040703 29 301 4.8 11.3 0.00 0.00 0.00 1 1013.6
20260906040603 29 302 4.8 11.3 0.00 0.00 0.00 1 1013.6
20260906040504 29 310 4.8 11.3 0.00 0.00 0.00 1 1013.6
20260906040404 29 316 3.2 11.3 0.00 0.00 0.00 1 1013.6
20260906040325 29 321 3.2 11.3 0.00 0.00 0.00 1 1013.6
20260906040203 29 336 3.2 11.3 0.00 0.00 0.00 1 1013.6
20260906040124 29 342 3.2 11.3 0.00 0.00 0.00 1 1013.6
20260906040004 29 338 3.2 11.3 0.00 0.00 0.00 1 1013.5
20260906035925 29 336 4.8 11.3 0.00 0.00 0.00 1 1013.5
20260906035803 29 335 3.2 9.7 0.00 0.00 0.00 1 1013.6
20260906035703 29 336 3.2 9.7 0.00 0.00 0.00 1 1013.5
20260906035603 29 342 3.2 9.7 0.00 0.00 0.00 1 1013.5
20260906035503 29 328 3.2 9.7 0.00 0.00 0.00 1 1013.5
20260906035403 29 321 3.2 9.7 0.00 0.00 0.00 1 1013.5
20260906035324 29 313 3.2 9.7 0.00 0.00 0.00 1 1013.5
20260906035204 29 293 3.2 9.7 0.00 0.00 0.00 1 1013.5
20260906035103 29 285 3.2 9.7 0.00 0.00 0.00 1 1013.5
20260906035003 29 283 3.2 9.7 0.00 0.00 0.00 1 1013.5
20260906034903 29 280 3.2 9.7 0.00 0.00 0.00 1 1013.5
20260906034825 29 279 3.2 9.7 0.00 0.00 0.00 1 1013.5
20260906034703 29 271 3.2 9.7 0.00 0.00 0.00 1 1013.5
20260906034603 29 265 3.2 9.7 0.00 0.00 0.00 1 1013.5
20260906034503 29 258 3.2 9.7 0.00 0.00 0.00 1 1013.5
20260906034403 29 253 3.2 9.7 0.00 0.00 0.00 1 1013.5
20260906034303 29 250 3.2 8.0 0.00 0.00 0.00 1 1013.5
20260906034204 29 249 3.2 8.0 0.00 0.00 0.00 1 1013.5
20260906034103 29 248 3.2 8.0 0.00 0.00 0.00 1 1013.5
20260906034003 29 248 3.2 8.0 0.00 0.00 0.00 2 1013.5
20260906033903 29 247 3.2 8.0 0.00 0.00 0.00 2 1013.5
20260906033803 29 246 3.2 8.0 0.00 0.00 0.00 3 1013.5
20260906033724 29 245 3.2 8.0 0.00 0.00 0.00 4 1013.5
20260906033604 29 244 3.2 8.0 0.00 0.00 0.00 5 1013.6
20260906033503 29 244 3.2 8.0 0.00 0.00 0.00 5 1013.5
20260906033403 29 243 3.2 8.0 0.00 0.00 0.00 6 1013.6
20260906033303 29 243 3.2 8.0 0.00 0.00 0.00 6 1013.6
20260906033225 29 243 3.2 8.0 0.00 0.00 0.00 7 1013.5
20260906033103 29 243 3.2 8.0 0.00 0.00 0.00 8 1013.5
20260906033003 29 244 3.2 8.0 0.00 0.00 0.00 8 1013.5
20260906032903 29 245 3.2 8.0 0.00 0.00 0.00 9 1013.5
20260906032824 29 246 3.2 8.0 0.00 0.00 0.00 10 1013.5
20260906032703 29 246 3.2 9.7 0.00 0.00 0.00 10 1013.5
20260906032603 29 251 4.8 11.3 0.00 0.00 0.00 11 1013.5
20260906032503 29 253 4.8 11.3 0.00 0.00 0.00 12 1013.5
20260906032404 30 255 4.8 11.3 0.00 0.00 0.00 12 1013.5
20260906032306 30 255 4.8 11.3 0.00 0.00 0.00 13 1013.4
20260906032224 30 255 4.8 11.3 0.00 0.00 0.00 14 1013.5
20260906032125 30 256 4.8 11.3 0.00 0.00 0.00 14 1013.4
20260906032003 30 257 4.8 11.3 0.00 0.00 0.00 16 1013.4
20260906031924 30 256 4.8 11.3 0.00 0.00 0.00 16 1013.4
20260906031803 30 255 4.8 11.3 0.00 0.00 0.00 17 1013.4
20260906031703 30 257 4.8 11.3 0.00 0.00 0.00 18 1013.4
20260906031603 30 255 4.8 9.7 0.00 0.00 0.00 18 1013.4
20260906031504 30 256 4.8 11.3 0.00 0.00 0.00 19 1013.4
20260906031403 30 257 4.8 11.3 0.00 0.00 0.00 21 1013.4
20260906031303 30 259 4.8 11.3 0.00 0.00 0.00 21 1013.4
20260906031203 30 259 4.8 11.3 0.00 0.00 0.00 22 1013.4
20260906031124 30 258 4.8 11.3 0.00 0.00 0.00 23 1013.4
20260906031003 30 259 4.8 11.3 0.00 0.00 0.00 23 1013.3
20260906030924 30 259 4.8 11.3 0.00 0.00 0.00 24 1013.3
20260906030824 30 261 4.8 11.3 0.00 0.00 0.00 24 1013.3
20260906030703 30 261 4.8 11.3 0.00 0.00 0.00 26 1013.3
20260906030625 30 259 4.8 11.3 0.00 0.00 0.00 26 1013.3
20260906030503 30 256 4.8 11.3 0.00 0.00 0.00 26 1013.3
20260906030403 30 255 4.8 11.3 0.00 0.00 0.00 27 1013.3
20260906030303 30 254 4.8 11.3 0.00 0.00 0.00 27 1013.3
20260906030203 30 255 4.8 11.3 0.00 0.00 0.00 28 1013.3
20260906030003 30 258 4.8 11.3 0.00 0.00 0.00 29 1013.2
20260906025903 30 258 4.8 11.3 0.00 0.00 0.00 30 1013.1
20260906025803 30 258 4.8 11.3 0.00 0.00 0.00 30 1013.1
20260906025703 30 257 4.8 9.7 0.00 0.00 0.00 31 1013.2
20260906025603 30 257 4.8 9.7 0.00 0.00 0.00 31 1013.1
20260906025503 30 258 4.8 9.7 0.00 0.00 0.00 32 1013.1
20260906025403 30 261 4.8 9.7 0.00 0.00 0.00 32 1013.1
20260906025324 30 261 4.8 9.7 0.00 0.00 0.00 32 1013.1
20260906025203 30 262 4.8 9.7 0.00 0.00 0.00 33 1013.0
20260906025125 30 262 4.8 9.7 0.00 0.00 0.00 33 1013.1
20260906025003 30 261 4.8 11.3 0.00 0.00 0.00 34 1013.0
20260906024903 30 260 4.8 12.9 0.00 0.00 0.00 34 1013.0
20260906024803 30 258 4.8 12.9 0.00 0.00 0.00 34 1013.0
20260906024703 30 257 4.8 12.9 0.00 0.00 0.00 35 1012.9
20260906024604 30 258 4.8 12.9 0.00 0.00 0.00 35 1012.9
20260906024503 30 258 4.8 12.9 0.00 0.00 0.00 35 1012.9
20260906024403 30 256 4.8 12.9 0.00 0.00 0.00 36 1012.8
20260906024304 30 255 4.8 12.9 0.00 0.00 0.00 36 1012.8
20260906024204 30 255 4.8 12.9 0.00 0.00 0.00 36 1012.8
20260906024103 31 255 6.4 12.9 0.00 0.00 0.00 37 1012.8
20260906024003 31 256 4.8 12.9 0.00 0.00 0.00 37 1012.7
20260906023903 31 257 4.8 11.3 0.00 0.00 0.00 37 1012.6
20260906023803 31 260 4.8 11.3 0.00 0.00 0.00 38 1012.6
20260906023704 31 261 4.8 11.3 0.00 0.00 0.00 38 1012.6
20260906023603 31 264 6.4 14.5 0.00 0.00 0.00 38 1012.6
20260906023503 31 264 6.4 14.5 0.00 0.00 0.00 38 1012.5
20260906023403 31 265 6.4 14.5 0.00 0.00 0.00 38 1012.4
20260906023303 31 265 6.4 16.1 0.00 0.00 0.00 39 1012.4
20260906023225 31 266 6.4 16.1 0.00 0.00 0.00 39 1012.4
20260906023103 31 266 6.4 16.1 0.00 0.00 0.00 39 1012.4
20260906023003 31 268 6.4 16.1 0.00 0.00 0.00 39 1012.3
20260906022903 31 270 6.4 16.1 0.00 0.00 0.00 39 1012.3
20260906022804 31 270 6.4 16.1 0.00 0.00 0.00 40 1012.3
20260906022703 31 274 6.4 16.1 0.00 0.00 0.00 40 1012.2
20260906022624 31 272 6.4 16.1 0.00 0.00 0.00 40 1012.2
20260906022504 31 270 6.4 16.1 0.00 0.00 0.00 40 1012.2
20260906022403 31 269 6.4 16.1 0.00 0.00 0.00 40 1012.2
20260906022306 31 270 6.4 19.3 0.00 0.00 0.00 40 1012.2
20260906022203 31 269 6.4 19.3 0.00 0.00 0.00 41 1012.2
20260906022125 31 266 6.4 19.3 0.00 0.00 0.00 41 1012.1
20260906022004 31 262 6.4 19.3 0.00 0.00 0.00 41 1012.2
20260906021903 31 259 6.4 19.3 0.00 0.00 0.00 41 1012.1
20260906021803 31 259 6.4 19.3 0.00 0.00 0.00 41 1012.1
20260906021703 31 258 6.4 19.3 0.00 0.00 0.00 41 1012.1
20260906021603 31 262 6.4 19.3 0.00 0.00 0.00 41 1012.1
20260906021503 31 263 6.4 19.3 0.00 0.00 0.00 42 1012.0
20260906021403 31 263 8.0 19.3 0.00 0.00 0.00 42 1012.0
20260906021303 31 261 8.0 20.9 0.00 0.00 0.00 42 1012.0
20260906021203 31 262 8.0 20.9 0.00 0.00 0.00 42 1012.0
20260906021103 31 263 8.0 20.9 0.00 0.00 0.00 42 1011.9
20260906021024 31 264 8.0 20.9 0.00 0.00 0.00 42 1011.9
20260906020904 31 264 8.0 20.9 0.00 0.00 0.00 42 1012.0
20260906020803 31 263 8.0 20.9 0.00 0.00 0.00 43 1011.9
20260906020703 31 261 8.0 20.9 0.00 0.00 0.00 43 1011.9
20260906020606 31 258 8.0 20.9 0.00 0.00 0.00 43 1012.0
20260906020524 31 258 6.4 20.9 0.00 0.00 0.00 43 1011.9
20260906020403 31 258 6.4 20.9 0.00 0.00 0.00 43 1011.9
20260906020325 31 258 6.4 19.3 0.00 0.00 0.00 43 1011.9
20260906020203 32 256 6.4 19.3 0.00 0.00 0.00 43 1011.8
20260906020103 32 256 4.8 19.3 0.00 0.00 0.00 43 1011.8
20260906020024 32 256 4.8 17.7 0.00 0.00 0.00 43 1011.7
20260906015903 32 256 4.8 12.9 0.00 0.00 0.00 43 1011.7
20260906015804 32 257 4.8 12.9 0.00 0.00 0.00 43 1011.6
20260906015724 32 259 4.8 12.9 0.00 0.00 0.00 43 1011.6
20260906015603 32 264 4.8 12.9 0.00 0.00 0.00 43 1011.6
20260906015503 32 267 4.8 12.9 0.00 0.00 0.00 43 1011.6
20260906015403 32 269 4.8 12.9 0.00 0.00 0.00 43 1011.6
20260906015306 32 270 4.8 11.3 0.00 0.00 0.00 43 1011.6
20260906015206 32 270 4.8 11.3 0.00 0.00 0.00 43 1011.5
20260906015103 32 270 4.8 11.3 0.00 0.00 0.00 43 1011.5
20260906015004 32 270 4.8 11.3 0.00 0.00 0.00 43 1011.6
20260906014903 32 269 4.8 12.9 0.00 0.00 0.00 43 1011.5
20260906014803 32 268 6.4 12.9 0.00 0.00 0.00 43 1011.5
20260906014724 32 266 6.4 12.9 0.00 0.00 0.00 43 1011.5
20260906014604 32 261 6.4 12.9 0.00 0.00 0.00 43 1011.5
20260906014503 32 261 6.4 14.5 0.00 0.00 0.00 43 1011.4
20260906014403 32 258 6.4 14.5 0.00 0.00 0.00 43 1011.5
20260906014303 32 257 6.4 14.5 0.00 0.00 0.00 43 1011.5
20260906014203 32 256 6.4 14.5 0.00 0.00 0.00 43 1011.5
20260906014104 32 255 6.4 14.5 0.00 0.00 0.00 44 1011.5
20260906014003 32 252 4.8 14.5 0.00 0.00 0.00 44 1011.5
20260906013904 32 252 4.8 14.5 0.00 0.00 0.00 44 1011.5
20260906013803 32 251 4.8 14.5 0.00 0.00 0.00 44 1011.4
20260906013704 32 251 4.8 14.5 0.00 0.00 0.00 44 1011.5
20260906013604 32 251 4.8 14.5 0.00 0.00 0.00 44 1011.4
20260906013503 32 249 4.8 12.9 0.00 0.00 0.00 44 1011.4
20260906013403 32 249 4.8 12.9 0.00 0.00 0.00 44 1011.5
20260906013325 32 250 4.8 12.9 0.00 0.00 0.00 44 1011.4
20260906013203 32 251 4.8 12.9 0.00 0.00 0.00 44 1011.4
20260906013103 32 251 4.8 12.9 0.00 0.00 0.00 44 1011.4
20260906013024 32 252 4.8 12.9 0.00 0.00 0.00 44 1011.3
20260906012903 32 253 4.8 12.9 0.00 0.00 0.00 44 1011.4
20260906012824 32 253 4.8 12.9 0.00 0.00 0.00 44 1011.3
20260906012703 32 254 4.8 12.9 0.00 0.00 0.00 44 1011.4
20260906012603 32 254 4.8 12.9 0.00 0.00 0.00 44 1011.4
20260906012503 32 255 4.8 12.9 0.00 0.00 0.00 44 1011.4
20260906012403 32 257 4.8 12.9 0.00 0.00 0.00 44 1011.4
20260906012306 32 258 4.8 12.9 0.00 0.00 0.00 44 1011.4
20260906012203 32 257 4.8 14.5 0.00 0.00 0.00 44 1011.3
20260906012103 32 258 4.8 14.5 0.00 0.00 0.00 44 1011.3
20260906012003 32 256 4.8 14.5 0.00 0.00 0.00 44 1011.3
20260906011903 32 257 4.8 14.5 0.00 0.00 0.00 44 1011.3
20260906011803 32 258 4.8 14.5 0.00 0.00 0.00 44 1011.3
20260906011703 32 259 4.8 14.5 0.00 0.00 0.00 44 1011.3
20260906011603 32 260 4.8 14.5 0.00 0.00 0.00 44 1011.3
20260906011504 32 260 6.4 14.5 0.00 0.00 0.00 44 1011.3
20260906011403 32 259 6.4 14.5 0.00 0.00 0.00 44 1011.3
20260906011324 32 258 6.4 14.5 0.00 0.00 0.00 44 1011.3
20260906011224 32 262 6.4 16.1 0.00 0.00 0.00 44 1011.3
20260906011124 33 261 6.4 17.7 0.00 0.00 0.00 44 1011.3
20260906011003 33 263 6.4 17.7 0.00 0.00 0.00 44 1011.3
20260906010903 33 263 8.0 17.7 0.00 0.00 0.00 44 1011.3
20260906010803 33 263 8.0 17.7 0.00 0.00 0.00 44 1011.3
20260906010724 33 263 8.0 17.7 0.00 0.00 0.00 44 1011.3
20260906010604 33 263 8.0 20.9 0.00 0.00 0.00 44 1011.3
20260906010503 33 263 8.0 20.9 0.00 0.00 0.00 44 1011.3
20260906010403 33 264 8.0 20.9 0.00 0.00 0.00 44 1011.3
20260906010303 33 264 8.0 20.9 0.00 0.00 0.00 44 1011.3
20260906010203 33 262 8.0 20.9 0.00 0.00 0.00 44 1011.2
20260906010103 33 262 6.4 20.9 0.00 0.00 0.00 44 1011.2
20260906010003 33 263 6.4 20.9 0.00 0.00 0.00 44 1011.2
20260906005925 33 261 6.4 20.9 0.00 0.00 0.00 45 1011.2
20260906005803 33 263 6.4 20.9 0.00 0.00 0.00 45 1011.3
20260906005703 33 265 8.0 20.9 0.00 0.00 0.00 45 1011.3
20260906005603 33 265 8.0 17.7 0.00 0.00 0.00 45 1011.2
20260906005503 33 265 8.0 20.9 0.00 0.00 0.00 45 1011.3
20260906005403 33 266 8.0 20.9 0.00 0.00 0.00 45 1011.3
20260906005306 33 268 8.0 20.9 0.00 0.00 0.00 45 1011.2
20260906005203 33 270 8.0 20.9 0.00 0.00 0.00 45 1011.2
20260906005124 33 272 8.0 20.9 0.00 0.00 0.00 45 1011.2
20260906005003 33 273 8.0 20.9 0.00 0.00 0.00 45 1011.2
20260906004903 33 274 8.0 20.9 0.00 0.00 0.00 45 1011.2
20260906004803 33 274 8.0 20.9 0.00 0.00 0.00 45 1011.2
20260906004703 33 272 8.0 20.9 0.00 0.00 0.00 45 1011.1
20260906004604 33 271 8.0 20.9 0.00 0.00 0.00 45 1011.2
20260906004503 33 271 8.0 16.1 0.00 0.00 0.00 45 1011.2
20260906004424 33 271 8.0 16.1 0.00 0.00 0.00 45 1011.2
20260906004324 33 267 8.0 16.1 0.00 0.00 0.00 45 1011.2
20260906004203 33 266 6.4 16.1 0.00 0.00 0.00 45 1011.2
20260906004103 33 267 8.0 16.1 0.00 0.00 0.00 45 1011.2
20260906004003 33 270 8.0 16.1 0.00 0.00 0.00 45 1011.2
20260906003903 33 271 8.0 17.7 0.00 0.00 0.00 45 1011.1
20260906003803 33 270 8.0 17.7 0.00 0.00 0.00 44 1011.2
20260906003724 33 272 8.0 17.7 0.00 0.00 0.00 44 1011.2
20260906003603 33 270 8.0 17.7 0.00 0.00 0.00 44 1011.1
20260906003503 33 269 8.0 17.7 0.00 0.00 0.00 44 1011.1
20260906003403 34 269 8.0 17.7 0.00 0.00 0.00 44 1011.1
20260906003303 34 271 8.0 17.7 0.00 0.00 0.00 44 1011.1
20260906003203 34 271 8.0 17.7 0.00 0.00 0.00 44 1011.2
20260906003103 34 268 8.0 17.7 0.00 0.00 0.00 44 1011.1
20260906003003 34 266 6.4 17.7 0.00 0.00 0.00 44 1011.1
20260906002904 34 262 6.4 16.1 0.00 0.00 0.00 44 1011.1
20260906002824 34 262 6.4 16.1 0.00 0.00 0.00 44 1011.1
20260906002703 34 261 6.4 16.1 0.00 0.00 0.00 44 1011.1
20260906002603 34 263 6.4 16.1 0.00 0.00 0.00 44 1011.1
20260906002503 34 264 6.4 16.1 0.00 0.00 0.00 44 1011.0
20260906002403 34 265 6.4 16.1 0.00 0.00 0.00 43 1011.0
20260906002306 34 264 6.4 16.1 0.00 0.00 0.00 43 1011.1
20260906002203 35 262 6.4 16.1 0.00 0.00 0.00 43 1011.0
20260906002103 35 267 6.4 14.5 0.00 0.00 0.00 43 1011.0
20260906002004 35 269 6.4 17.7 0.00 0.00 0.00 43 1011.0
20260906001903 35 268 6.4 17.7 0.00 0.00 0.00 43 1011.0
20260906001803 35 266 6.4 17.7 0.00 0.00 0.00 43 1011.0
20260906001703 35 267 6.4 17.7 0.00 0.00 0.00 43 1011.0
20260906001603 35 268 6.4 17.7 0.00 0.00 0.00 43 1011.0
20260906001503 35 268 6.4 17.7 0.00 0.00 0.00 42 1011.0
20260906001405 35 269 6.4 17.7 0.00 0.00 0.00 42 1010.9
20260906001303 35 270 6.4 17.7 0.00 0.00 0.00 43 1011.0
20260906001203 35 273 6.4 17.7 0.00 0.00 0.00 42 1010.9
20260906001103 35 269 4.8 17.7 0.00 0.00 0.00 42 1010.9
20260906001024 35 263 4.8 17.7 0.00 0.00 0.00 42 1010.9
20260906000903 35 267 6.4 17.7 0.00 0.00 0.00 42 1010.9
20260906000803 35 270 6.4 17.7 0.00 0.00 0.00 42 1010.9
20260906000703 35 270 4.8 17.7 0.00 0.00 0.00 42 1010.9
20260906000604 35 269 4.8 12.9 0.00 0.00 0.00 42 1010.9
20260906000503 35 271 4.8 12.9 0.00 0.00 0.00 42 1010.9
20260906000405 35 268 6.4 12.9 0.00 0.00 0.00 42 1010.9
20260906000304 35 266 6.4 12.9 0.00 0.00 0.00 42 1010.9
20260906000204 35 266 6.4 12.9 0.00 0.00 0.00 42 1010.9
20260906000103 35 266 4.8 11.3 0.00 0.00 0.00 41 1010.9
20260906000003 35 268 4.8 11.3 0.00 0.00 0.00 41 1010.9
20260905235924 35 264 4.8 11.3 0.00 0.00 0.00 41 1010.9
20260905235803 35 262 4.8 12.9 0.00 0.00 0.00 41 1010.8
20260905235724 35 261 6.4 12.9 0.00 0.00 0.00 41 1010.8
20260905235603 35 258 6.4 12.9 0.00 0.00 0.00 41 1010.8
20260905235524 35 256 6.4 12.9 0.00 0.00 0.00 41 1010.8
20260905235403 35 256 6.4 19.3 0.00 0.00 0.00 41 1010.8
20260905235306 35 255 8.0 19.3 0.00 0.00 0.00 41 1010.7
20260905235224 35 252 8.0 19.3 0.00 0.00 0.00 41 1010.8
20260905235103 35 249 9.7 20.9 0.00 0.00 0.00 41 1010.8
20260905235024 35 248 9.7 20.9 0.00 0.00 0.00 41 1010.8
20260905234903 35 247 9.7 20.9 0.00 0.00 0.00 41 1010.8
20260905234803 35 247 9.7 20.9 0.00 0.00 0.00 42 1010.7
20260905234703 35 245 9.7 22.5 0.00 0.00 0.00 42 1010.7
20260905234603 35 244 11.3 22.5 0.00 0.00 0.00 42 1010.7
20260905234504 35 244 11.3 22.5 0.00 0.00 0.00 42 1010.7
20260905234403 35 243 11.3 22.5 0.00 0.00 0.00 42 1010.6
20260905234303 35 245 11.3 22.5 0.00 0.00 0.00 42 1010.6
20260905234203 35 246 9.7 22.5 0.00 0.00 0.00 42 1010.6
20260905234124 35 245 11.3 22.5 0.00 0.00 0.00 42 1010.6
20260905234003 35 246 11.3 22.5 0.00 0.00 0.00 42 1010.6
20260905233903 35 247 11.3 22.5 0.00 0.00 0.00 42 1010.6
20260905233803 35 247 11.3 22.5 0.00 0.00 0.00 41 1010.6
20260905233724 35 249 9.7 20.9 0.00 0.00 0.00 41 1010.5
20260905233603 35 250 9.7 20.9 0.00 0.00 0.00 42 1010.6
20260905233524 35 252 9.7 20.9 0.00 0.00 0.00 42 1010.6
20260905233403 36 253 9.7 20.9 0.00 0.00 0.00 41 1010.6
20260905233303 36 252 8.0 20.9 0.00 0.00 0.00 41 1010.6
20260905233203 36 253 8.0 20.9 0.00 0.00 0.00 41 1010.6
20260905233124 36 253 8.0 20.9 0.00 0.00 0.00 41 1010.7
20260905233003 36 251 8.0 14.5 0.00 0.00 0.00 41 1010.6
20260905232903 36 249 8.0 17.7 0.00 0.00 0.00 41 1010.6
20260905232803 36 247 8.0 17.7 0.00 0.00 0.00 40 1010.6
20260905232703 36 246 8.0 17.7 0.00 0.00 0.00 41 1010.6
20260905232603 36 247 8.0 17.7 0.00 0.00 0.00 40 1010.6
20260905232504 36 246 8.0 17.7 0.00 0.00 0.00 41 1010.6
20260905232403 36 243 8.0 17.7 0.00 0.00 0.00 41 1010.6
20260905232324 36 244 8.0 17.7 0.00 0.00 0.00 40 1010.6
20260905232203 36 245 8.0 17.7 0.00 0.00 0.00 40 1010.6
20260905232124 36 246 8.0 17.7 0.00 0.00 0.00 40 1010.6
20260905232003 36 246 8.0 17.7 0.00 0.00 0.00 40 1010.6
20260905231924 36 245 8.0 17.7 0.00 0.00 0.00 40 1010.6
20260905231803 36 252 6.4 16.1 0.00 0.00 0.00 40 1010.6
20260905231703 36 253 6.4 16.1 0.00 0.00 0.00 40 1010.6
20260905231604 36 254 6.4 16.1 0.00 0.00 0.00 40 1010.6
20260905231503 36 255 6.4 16.1 0.00 0.00 0.00 40 1010.6
20260905231403 36 258 6.4 16.1 0.00 0.00 0.00 39 1010.6
20260905231303 36 258 4.8 16.1 0.00 0.00 0.00 39 1010.6
20260905231203 36 257 4.8 16.1 0.00 0.00 0.00 39 1010.6
20260905231103 36 259 4.8 16.1 0.00 0.00 0.00 39 1010.5
20260905231004 37 264 4.8 12.9 0.00 0.00 0.00 38 1010.5
20260905230903 37 267 4.8 9.7 0.00 0.00 0.00 38 1010.5
20260905230803 37 264 4.8 9.7 0.00 0.00 0.00 37 1010.5
20260905230703 37 266 4.8 9.7 0.00 0.00 0.00 37 1010.5
20260905230603 37 269 4.8 9.7 0.00 0.00 0.00 36 1010.5
20260905230503 37 275 4.8 11.3 0.00 0.00 0.00 37 1010.5
20260905230403 37 278 4.8 11.3 0.00 0.00 0.00 37 1010.4
20260905230324 37 278 4.8 11.3 0.00 0.00 0.00 37 1010.4
20260905230203 37 276 4.8 11.3 0.00 0.00 0.00 37 1010.4
20260905230103 37 275 4.8 11.3 0.00 0.00 0.00 36 1010.4
20260905230003 37 278 3.2 11.3 0.00 0.00 0.00 36 1010.4
20260905225903 37 279 3.2 11.3 0.00 0.00 0.00 36 1010.5
20260905225803 37 278 3.2 11.3 0.00 0.00 0.00 37 1010.5
20260905225703 37 275 3.2 11.3 0.00 0.00 0.00 36 1010.5
20260905225603 37 267 3.2 11.3 0.00 0.00 0.00 36 1010.5
20260905225503 37 258 4.8 11.3 0.00 0.00 0.00 36 1010.5
20260905225403 37 256 4.8 11.3 0.00 0.00 0.00 36 1010.5
20260905225305 37 256 4.8 12.9 0.00 0.00 0.00 36 1010.6
20260905225203 37 256 4.8 12.9 0.00 0.00 0.00 36 1010.5
20260905225103 37 256 6.4 12.9 0.00 0.00 0.00 37 1010.5
20260905225003 37 256 6.4 12.9 0.00 0.00 0.00 37 1010.6
20260905224903 37 256 6.4 12.9 0.00 0.00 0.00 37 1010.5
20260905224803 37 254 8.0 12.9 0.00 0.00 0.00 37 1010.6
20260905224703 37 253 8.0 12.9 0.00 0.00 0.00 37 1010.6
20260905224603 37 255 6.4 12.9 0.00 0.00 0.00 36 1010.6
20260905224503 37 257 6.4 12.9 0.00 0.00 0.00 36 1010.6
20260905224403 37 256 6.4 12.9 0.00 0.00 0.00 37 1010.6
20260905224303 37 254 6.4 12.9 0.00 0.00 0.00 37 1010.5
20260905224203 37 252 4.8 12.9 0.00 0.00 0.00 37 1010.5
20260905224103 37 250 4.8 12.9 0.00 0.00 0.00 37 1010.6
20260905224024 37 249 4.8 12.9 0.00 0.00 0.00 37 1010.5
20260905223903 37 244 4.8 11.3 0.00 0.00 0.00 37 1010.5
20260905223803 37 241 3.2 11.3 0.00 0.00 0.00 37 1010.5
20260905223703 37 237 3.2 11.3 0.00 0.00 0.00 37 1010.5
20260905223603 37 230 3.2 11.3 0.00 0.00 0.00 37 1010.5
20260905223503 37 217 3.2 9.7 0.00 0.00 0.00 37 1010.5
20260905223403 37 211 3.2 9.7 0.00 0.00 0.00 37 1010.5
20260905223303 37 206 1.6 9.7 0.00 0.03 0.00 37 1010.6
20260905223203 37 194 1.6 8.0 0.00 0.03 0.00 37 1010.5
20260905223103 37 190 1.6 8.0 0.00 0.03 0.00 37 1010.5
20260905223003 37 183 1.6 8.0 0.00 0.03 0.00 37 1010.6
20260905222903 37 174 1.6 8.0 0.00 0.05 0.00 37 1010.5
20260905222803 36 178 3.2 6.4 0.00 0.05 0.00 37 1010.6
20260905222703 36 186 3.2 8.0 0.00 0.05 0.00 37 1010.6
20260905222603 36 190 3.2 8.0 0.00 0.08 0.00 37 1010.6
20260905222503 36 193 3.2 8.0 0.00 0.10 0.00 37 1010.6
20260905222403 36 195 3.2 8.0 0.00 0.10 0.00 37 1010.6
20260905222306 36 197 4.8 9.7 0.00 0.10 0.00 37 1010.6
20260905222205 36 200 4.8 9.7 0.00 0.13 0.00 37 1010.6
20260905222103 36 202 4.8 9.7 0.00 0.13 0.00 37 1010.6
20260905222024 36 203 4.8 9.7 0.00 0.13 0.00 37 1010.6
20260905221903 36 207 4.8 9.7 0.00 0.13 0.00 37 1010.7
20260905221824 36 208 4.8 9.7 0.00 0.13 0.00 38 1010.7
20260905221724 36 209 4.8 9.7 0.00 0.13 0.00 38 1010.7
20260905221603 36 210 4.8 9.7 0.00 0.13 0.00 38 1010.6
20260905221525 36 210 4.8 9.7 0.00 0.13 0.00 38 1010.6
20260905221403 36 210 4.8 9.7 0.00 0.13 0.00 37 1010.7
20260905221303 36 207 4.8 9.7 0.00 0.13 0.00 37 1010.7
20260905221203 36 204 4.8 9.7 0.00 0.13 0.00 38 1010.7
20260905221103 36 203 4.8 9.7 0.00 0.13 0.00 38 1010.7
20260905221003 36 199 4.8 9.7 0.00 0.13 0.00 37 1010.7
20260905220903 36 196 4.8 9.7 0.00 0.13 0.00 37 1010.7
20260905220803 36 192 4.8 9.7 0.00 0.13 0.00 37 1010.6
20260905220703 36 193 4.8 9.7 0.00 0.13 0.00 37 1010.7
20260905220624 36 195 4.8 9.7 0.00 0.13 0.00 37 1010.7
20260905220503 36 200 4.8 9.7 0.00 0.13 0.00 37 1010.7
20260905220403 37 207 4.8 9.7 0.00 0.13 0.00 37 1010.7
20260905220303 37 215 4.8 9.7 0.00 0.13 0.00 37 1010.7
20260905220203 37 223 4.8 11.3 0.00 0.13 0.00 37 1010.7
20260905220103 37 230 4.8 11.3 0.00 0.13 0.00 37 1010.8
20260905220003 37 238 6.4 11.3 0.00 0.13 0.00 37 1010.7
20260905215903 37 244 6.4 12.9 0.00 0.13 0.00 37 1010.8
20260905215803 37 245 6.4 12.9 0.00 0.13 0.00 37 1010.8
20260905215703 37 243 6.4 12.9 0.00 0.13 0.00 37 1010.8
20260905215603 37 242 6.4 14.5 0.00 0.13 0.00 37 1010.8
20260905215524 37 241 6.4 14.5 0.00 0.13 0.00 37 1010.8
20260905215403 37 237 6.4 14.5 0.00 0.13 0.00 37 1010.8
20260905215306 37 236 6.4 14.5 0.00 0.13 0.00 37 1010.8
20260905215224 37 237 6.4 14.5 0.00 0.13 0.00 37 1010.9
20260905215103 37 236 6.4 14.5 0.00 0.13 0.00 37 1010.8
20260905215024 37 235 6.4 14.5 0.00 0.13 0.00 37 1010.8
20260905214903 37 234 4.8 14.5 0.00 0.13 0.00 37 1010.8
20260905214824 37 237 6.4 14.5 0.00 0.13 0.00 37 1010.7
20260905214703 37 239 4.8 14.5 0.00 0.13 0.00 36 1010.7
20260905214624 37 240 4.8 14.5 0.00 0.13 0.00 36 1010.7
20260905214503 37 240 4.8 11.3 0.00 0.13 0.00 36 1010.7
20260905214403 37 241 4.8 11.3 0.00 0.13 0.00 36 1010.7
20260905214303 37 239 4.8 9.7 0.00 0.13 0.00 36 1010.7
20260905214203 37 237 4.8 9.7 0.00 0.13 0.00 36 1010.7
20260905214103 37 243 4.8 9.7 0.00 0.13 0.00 36 1010.7
20260905214003 37 249 4.8 9.7 0.00 0.13 0.00 36 1010.7
20260905213903 37 257 4.8 9.7 0.00 0.13 0.00 36 1010.7
20260905213824 37 258 4.8 9.7 0.00 0.13 0.00 36 1010.7
20260905213703 37 265 4.8 9.7 0.00 0.13 0.00 36 1010.7
20260905213624 37 267 4.8 9.7 0.00 0.13 0.00 36 1010.6
20260905213525 37 272 4.8 9.7 0.00 0.13 0.00 37 1010.7
20260905213424 37 274 4.8 9.7 0.00 0.13 0.00 36 1010.7
20260905213303 37 283 3.2 9.7 0.00 0.13 0.00 36 1010.8
20260905213203 37 283 3.2 9.7 0.00 0.13 0.00 36 1010.8
20260905213103 37 276 4.8 9.7 0.00 0.13 0.00 36 1010.7
20260905213003 37 274 4.8 9.7 0.00 0.13 0.00 36 1010.8
20260905212903 37 265 4.8 9.7 0.00 0.13 0.00 37 1010.8
20260905212803 37 264 4.8 12.9 0.00 0.13 0.00 36 1010.7
20260905212703 37 263 4.8 12.9 0.00 0.13 0.00 36 1010.8